GW2849 Weather Reports


Display with metric or nautical units.
time (UTC)temp
F
wind
direction
speed
MPH
gust
MPH
rain 1hr
in
rain 24hr
in
rain mn
in
humidity
%
barometer
mb
20260509173200 69 249 3.0 7.0 0.00 0.13 0.13 63 1008.6
20260509173059 69 262 2.0 7.0 0.00 0.13 0.13 63 1008.7
20260509172858 69 254 2.0 9.0 0.00 0.13 0.13 63 1008.8
20260509172800 69 190 3.0 9.0 0.00 0.13 0.13 64 1008.8
20260509172700 69 179 5.0 9.0 0.00 0.13 0.13 63 1008.8
20260509172600 69 218 7.0 9.0 0.00 0.13 0.13 63 1008.9
20260509172459 69 153 2.0 9.0 0.00 0.13 0.13 64 1008.7
20260509172359 69 292 2.0 9.0 0.00 0.13 0.13 64 1008.8
20260509172300 69 40 2.0 9.0 0.00 0.13 0.13 64 1008.8
20260509172159 69 120 2.0 9.0 0.00 0.13 0.13 65 1008.8
20260509172058 69 47 3.0 9.0 0.00 0.13 0.13 65 1008.8
20260509171959 68 205 7.0 9.0 0.00 0.13 0.13 63 1008.8
20260509171800 68 230 1.0 9.0 0.00 0.13 0.13 63 1008.9
20260509171559 68 172 2.0 6.0 0.00 0.13 0.13 65 1008.7
20260509171458 68 182 1.0 6.0 0.00 0.13 0.13 64 1008.8
20260509171359 68 206 0.0 6.0 0.00 0.13 0.13 62 1008.8
20260509171158 68 205 3.0 6.0 0.00 0.13 0.13 64 1008.8
20260509171100 68 189 3.0 6.0 0.00 0.13 0.13 64 1008.8
20260509170958 68 16 1.0 6.0 0.00 0.13 0.13 64 1008.9
20260509170859 68 180 2.0 6.0 0.00 0.13 0.13 65 1008.8
20260509170801 68 25 0.0 6.0 0.00 0.13 0.13 65 1008.7
20260509170500 68 282 3.0 7.0 0.00 0.13 0.13 63 1008.7
20260509170359 68 145 3.0 7.0 0.00 0.13 0.13 66 1008.8
20260509170259 68 204 1.0 7.0 0.00 0.13 0.13 66 1008.8
20260509170200 68 311 3.0 7.0 0.00 0.13 0.13 66 1008.9
20260509170058 68 202 1.0 7.0 0.00 0.13 0.13 63 1008.9
20260509170002 68 200 4.0 7.0 0.00 0.13 0.13 64 1008.9
20260509165901 68 28 2.0 7.0 0.00 0.13 0.13 63 1008.9
20260509165801 68 181 2.0 7.0 0.00 0.13 0.13 63 1008.9
20260509165700 68 159 5.0 7.0 0.00 0.13 0.13 64 1008.9
20260509165600 68 263 3.0 7.0 0.00 0.13 0.13 64 1008.9
20260509165459 68 296 2.0 8.0 0.00 0.13 0.13 63 1008.9
20260509165402 68 173 2.0 8.0 0.00 0.13 0.13 64 1008.9
20260509165300 68 295 2.0 8.0 0.00 0.13 0.13 64 1009.0
20260509165200 68 211 5.0 8.0 0.00 0.13 0.13 63 1008.9
20260509165101 68 78 2.0 8.0 0.00 0.13 0.13 63 1008.9
20260509164902 68 18 1.0 8.0 0.00 0.13 0.13 64 1009.0
20260509164759 68 263 2.0 11.0 0.00 0.13 0.13 64 1009.0
20260509164701 68 255 4.0 11.0 0.00 0.13 0.13 64 1009.0
20260509164559 68 190 2.0 11.0 0.00 0.13 0.13 63 1009.0
20260509164501 68 279 3.0 11.0 0.00 0.13 0.13 62 1009.0
20260509164359 68 174 8.0 11.0 0.00 0.13 0.13 64 1009.0
20260509164300 68 182 2.0 11.0 0.00 0.13 0.13 61 1009.0
20260509164201 68 248 0.0 11.0 0.00 0.13 0.13 59 1009.0
20260509164101 68 39 0.0 11.0 0.00 0.13 0.13 59 1009.0
20260509164000 68 319 4.0 11.0 0.00 0.13 0.13 57 1009.0
20260509163759 68 194 3.0 7.0 0.00 0.13 0.13 57 1009.1
20260509163659 68 280 2.0 7.0 0.00 0.13 0.13 58 1009.1
20260509163600 68 157 3.0 7.0 0.00 0.13 0.13 59 1009.1
20260509163501 68 234 2.0 6.0 0.00 0.13 0.13 59 1009.0
20260509163200 68 194 3.0 6.0 0.00 0.13 0.13 61 1008.9
20260509163101 68 172 1.0 6.0 0.00 0.13 0.13 61 1008.9
20260509162959 68 141 2.0 6.0 0.00 0.13 0.13 62 1008.9
20260509162859 67 178 0.0 6.0 0.00 0.13 0.13 62 1008.8
20260509162701 67 298 2.0 6.0 0.00 0.13 0.13 60 1008.9
20260509162600 67 119 1.0 6.0 0.00 0.13 0.13 61 1008.9
20260509162501 67 284 1.0 6.0 0.00 0.13 0.13 60 1009.0
20260509162359 67 205 0.0 8.0 0.00 0.13 0.13 61 1009.0
20260509162101 68 211 3.0 8.0 0.00 0.13 0.13 59 1009.0
20260509161900 68 146 4.0 8.0 0.00 0.13 0.13 60 1008.9
20260509161803 68 286 3.0 8.0 0.00 0.13 0.13 61 1009.0
20260509161700 68 10 4.0 8.0 0.00 0.13 0.13 60 1009.0
20260509161559 68 36 0.0 8.0 0.00 0.13 0.13 65 1009.0
20260509161459 68 313 1.0 8.0 0.00 0.13 0.13 61 1008.9
20260509161401 68 138 2.0 8.0 0.00 0.13 0.13 61 1008.8
20260509161301 68 12 0.0 8.0 0.00 0.13 0.13 61 1008.9
20260509161200 68 206 1.0 8.0 0.00 0.13 0.13 61 1008.9
20260509161100 68 185 1.0 8.0 0.00 0.13 0.13 61 1008.9
20260509161000 68 202 2.0 8.0 0.00 0.13 0.13 60 1008.7
20260509160900 68 189 2.0 8.0 0.00 0.13 0.13 61 1008.8
20260509160601 68 135 1.0 9.0 0.00 0.13 0.13 63 1008.7
20260509160503 68 205 3.0 9.0 0.00 0.13 0.13 65 1008.7
20260509160300 68 209 0.0 9.0 0.00 0.13 0.13 65 1008.8
20260509160159 67 209 1.0 9.0 0.00 0.13 0.13 66 1008.6
20260509160059 67 140 2.0 9.0 0.00 0.13 0.13 62 1008.7
20260509155959 67 124 2.0 9.0 0.00 0.13 0.13 64 1008.8
20260509155901 67 167 4.0 6.0 0.00 0.13 0.13 62 1008.7
20260509155801 67 139 2.0 6.0 0.00 0.13 0.13 62 1008.7
20260509155501 67 209 1.0 6.0 0.00 0.13 0.13 62 1008.8
20260509155259 67 211 5.0 7.0 0.00 0.13 0.13 64 1008.7
20260509155201 67 225 1.0 7.0 0.00 0.13 0.13 63 1008.6
20260509155100 67 216 1.0 7.0 0.00 0.13 0.13 65 1008.6
20260509154900 67 245 1.0 4.0 0.00 0.13 0.13 66 1008.7
20260509154800 67 209 3.0 4.0 0.00 0.13 0.13 65 1008.6
20260509154501 67 152 2.0 3.0 0.00 0.13 0.13 67 1008.6
20260509154402 66 225 1.0 3.0 0.00 0.13 0.13 68 1008.6
20260509154301 66 217 2.0 3.0 0.00 0.13 0.13 68 1008.7
20260509154001 66 232 0.0 7.0 0.00 0.13 0.13 68 1008.7
20260509153800 66 213 0.0 7.0 0.00 0.13 0.13 67 1008.7
20260509153702 65 208 2.0 7.0 0.00 0.13 0.13 66 1008.7
20260509153601 65 252 3.0 7.0 0.00 0.13 0.13 67 1008.6
20260509153459 65 137 1.0 7.0 0.00 0.13 0.13 67 1008.7
20260509153400 65 145 1.0 7.0 0.00 0.13 0.13 65 1008.6
20260509153300 66 126 2.0 7.0 0.00 0.13 0.13 65 1008.6
20260509153159 66 123 4.0 6.0 0.00 0.13 0.13 66 1008.6
20260509153101 66 105 3.0 7.0 0.00 0.13 0.13 66 1008.7
20260509152959 65 156 2.0 7.0 0.00 0.13 0.13 69 1008.6
20260509152800 65 140 4.0 7.0 0.00 0.13 0.13 68 1008.6
20260509152701 65 144 2.0 7.0 0.00 0.13 0.13 68 1008.6
20260509152601 65 171 0.0 7.0 0.00 0.13 0.13 68 1008.6
20260509152500 65 150 4.0 7.0 0.00 0.13 0.13 66 1008.6
20260509152359 65 138 5.0 7.0 0.00 0.13 0.13 67 1008.6
20260509152301 65 157 3.0 7.0 0.00 0.13 0.13 67 1008.6
20260509152200 65 86 0.0 7.0 0.00 0.13 0.13 67 1008.6
20260509152100 65 155 1.0 7.0 0.00 0.13 0.13 68 1008.6
20260509152000 65 178 0.0 7.0 0.00 0.13 0.13 69 1008.5
20260509151859 65 161 1.0 5.0 0.00 0.13 0.13 67 1008.5
20260509151759 65 162 4.0 7.0 0.00 0.13 0.13 67 1008.5
20260509151700 65 162 1.0 7.0 0.00 0.13 0.13 68 1008.5
20260509151600 65 167 4.0 7.0 0.00 0.13 0.13 69 1008.5
20260509151501 65 144 3.0 7.0 0.00 0.13 0.13 70 1008.4
20260509151401 65 175 0.0 7.0 0.00 0.13 0.13 71 1008.4
20260509151300 64 170 1.0 7.0 0.00 0.13 0.13 70 1008.4
20260509151201 64 225 0.0 7.0 0.00 0.13 0.13 70 1008.4
20260509151100 64 245 2.0 7.0 0.00 0.13 0.13 69 1008.4
20260509151000 64 132 1.0 9.0 0.00 0.13 0.13 70 1008.4
20260509150859 64 169 2.0 9.0 0.00 0.13 0.13 70 1008.3
20260509150700 64 136 2.0 9.0 0.00 0.13 0.13 70 1008.4
20260509150601 64 274 2.0 9.0 0.00 0.13 0.13 69 1008.4
20260509150501 64 150 3.0 9.0 0.00 0.13 0.13 67 1008.5
20260509150359 64 138 4.0 9.0 0.00 0.13 0.13 70 1008.5
20260509150201 64 223 5.0 9.0 0.00 0.13 0.13 71 1008.4
20260509150100 64 86 1.0 6.0 0.00 0.13 0.13 71 1008.4
20260509150002 64 147 2.0 6.0 0.00 0.13 0.13 72 1008.4
20260509145901 64 148 0.0 6.0 0.00 0.13 0.13 72 1008.4
20260509145801 64 74 0.0 6.0 0.00 0.13 0.13 72 1008.4
20260509145702 64 186 2.0 6.0 0.00 0.13 0.13 73 1008.4
20260509145501 64 207 3.0 9.0 0.00 0.13 0.13 72 1008.4
20260509145401 64 205 1.0 9.0 0.00 0.13 0.13 73 1008.4
20260509145301 64 154 3.0 9.0 0.00 0.13 0.13 74 1008.4
20260509145101 64 215 1.0 9.0 0.00 0.13 0.13 73 1008.4
20260509145000 64 123 3.0 9.0 0.00 0.13 0.13 74 1008.4
20260509144800 63 163 1.0 9.0 0.00 0.13 0.13 72 1008.4
20260509144701 63 150 4.0 7.0 0.00 0.13 0.13 73 1008.4
20260509144600 63 135 0.0 7.0 0.00 0.13 0.13 74 1008.4
20260509144200 63 175 3.0 7.0 0.00 0.13 0.13 76 1008.4
20260509144100 63 150 3.0 5.0 0.00 0.13 0.13 76 1008.4
20260509143959 63 143 1.0 5.0 0.00 0.13 0.13 77 1008.3
20260509143800 63 253 1.0 4.0 0.00 0.13 0.13 78 1008.4
20260509143701 62 144 0.0 4.0 0.00 0.13 0.13 77 1008.3
20260509143559 62 216 1.0 4.0 0.00 0.13 0.13 79 1008.3
20260509143500 62 132 1.0 4.0 0.00 0.13 0.13 79 1008.3
20260509143400 62 167 1.0 4.0 0.00 0.13 0.13 78 1008.3
20260509143300 62 198 0.0 4.0 0.00 0.13 0.13 78 1008.4
20260509143202 62 143 2.0 4.0 0.00 0.13 0.13 80 1008.3
20260509142902 61 154 1.0 5.0 0.00 0.13 0.13 80 1008.4
20260509142800 61 142 0.0 4.0 0.00 0.13 0.13 81 1008.4
20260509142701 61 109 0.0 4.0 0.00 0.13 0.13 80 1008.3
20260509142601 61 156 1.0 4.0 0.00 0.13 0.13 80 1008.3
20260509142501 61 114 2.0 4.0 0.00 0.13 0.13 81 1008.3
20260509142400 61 165 0.0 6.0 0.00 0.13 0.13 81 1008.3
20260509142300 61 171 2.0 6.0 0.00 0.13 0.13 81 1008.3
20260509142200 61 179 0.0 6.0 0.00 0.13 0.13 82 1008.3
20260509142059 60 111 0.0 6.0 0.00 0.13 0.13 82 1008.3
20260509142000 60 189 1.0 6.0 0.00 0.13 0.13 82 1008.3
20260509141903 60 132 0.0 6.0 0.00 0.13 0.13 81 1008.3
20260509141801 60 150 2.0 6.0 0.00 0.13 0.13 80 1008.3
20260509141659 60 153 2.0 6.0 0.00 0.13 0.13 80 1008.3
20260509141500 60 159 5.0 6.0 0.00 0.13 0.13 82 1008.2
20260509141200 60 115 2.0 5.0 0.00 0.13 0.13 84 1008.2
20260509141101 60 135 2.0 5.0 0.00 0.13 0.13 85 1008.2
20260509140901 59 187 0.0 0.0 0.00 0.13 0.13 87 1008.2
20260509140800 59 124 0.0 0.0 0.00 0.13 0.13 88 1008.2
20260509140601 58 119 0.0 2.0 0.00 0.13 0.13 87 1008.2
20260509140500 58 92 0.0 2.0 0.00 0.13 0.13 87 1008.1
20260509140400 58 88 0.0 2.0 0.00 0.13 0.13 87 1008.2
20260509140300 58 118 0.0 2.0 0.00 0.13 0.13 88 1008.1
20260509140201 58 224 0.0 2.0 0.00 0.13 0.13 88 1008.1
20260509140001 58 168 0.0 2.0 0.00 0.13 0.13 88 1008.2
20260509135801 57 149 1.0 5.0 0.00 0.13 0.13 89 1008.2
20260509135700 57 171 0.0 5.0 0.00 0.13 0.13 89 1008.2
20260509135400 57 196 0.0 5.0 0.00 0.13 0.13 90 1008.3
20260509135301 57 167 0.0 5.0 0.00 0.13 0.13 90 1008.3
20260509135100 57 176 0.0 5.0 0.00 0.13 0.13 90 1008.2
20260509135000 57 169 1.0 5.0 0.00 0.13 0.13 90 1008.2
20260509134900 57 154 0.0 4.0 0.00 0.13 0.13 90 1008.3
20260509134659 56 138 1.0 4.0 0.00 0.13 0.13 90 1008.2
20260509134601 56 138 3.0 4.0 0.00 0.13 0.13 90 1008.2
20260509134459 56 304 0.0 5.0 0.00 0.13 0.13 90 1008.1
20260509134400 56 152 2.0 4.0 0.00 0.13 0.13 90 1008.1
20260509134301 56 155 0.0 4.0 0.00 0.13 0.13 90 1008.2
20260509134159 56 148 2.0 4.0 0.00 0.13 0.13 90 1008.2
20260509134059 56 154 0.0 4.0 0.00 0.13 0.13 90 1008.2
20260509134001 56 175 0.0 4.0 0.00 0.13 0.13 90 1008.2
20260509133859 56 167 0.0 5.0 0.00 0.13 0.13 90 1008.2
20260509133659 56 153 4.0 5.0 0.00 0.13 0.13 90 1008.2
20260509133559 56 144 2.0 5.0 0.00 0.13 0.13 90 1008.2
20260509133459 56 84 0.0 5.0 0.00 0.13 0.13 90 1008.1
20260509133401 56 84 0.0 5.0 0.00 0.13 0.13 90 1008.2
20260509133259 56 15 0.0 5.0 0.00 0.13 0.13 90 1008.2
20260509133059 55 106 1.0 5.0 0.00 0.13 0.13 90 1008.2
20260509132959 55 147 2.0 5.0 0.00 0.13 0.13 90 1008.3
20260509132859 55 244 2.0 7.0 0.00 0.13 0.13 90 1008.2
20260509132659 55 117 0.0 7.0 0.00 0.13 0.13 90 1008.2
20260509132601 55 166 1.0 7.0 0.00 0.13 0.13 90 1008.1
20260509132500 55 145 0.0 7.0 0.00 0.13 0.13 90 1008.2
20260509132359 55 142 0.0 7.0 0.00 0.13 0.13 90 1008.1
20260509132259 55 157 1.0 7.0 0.00 0.13 0.13 90 1008.1
20260509132201 55 154 3.0 7.0 0.00 0.13 0.13 90 1008.2
20260509132101 55 152 4.0 7.0 0.00 0.13 0.13 90 1008.2
20260509132000 55 152 1.0 5.0 0.00 0.13 0.13 90 1008.3
20260509131859 55 160 0.0 5.0 0.00 0.13 0.13 91 1008.3
20260509131800 55 149 2.0 5.0 0.00 0.13 0.13 91 1008.3
20260509131700 55 201 2.0 5.0 0.00 0.13 0.13 91 1008.3
20260509131600 55 152 2.0 4.0 0.00 0.13 0.13 91 1008.3
20260509131300 55 138 0.0 3.0 0.00 0.13 0.13 91 1008.2
20260509131159 55 146 3.0 3.0 0.00 0.13 0.13 91 1008.2
20260509131059 55 135 1.0 1.0 0.00 0.13 0.13 91 1008.2
20260509130902 55 161 0.0 0.0 0.00 0.13 0.13 91 1008.1
20260509130800 55 148 0.0 0.0 0.00 0.13 0.13 91 1008.2
20260509130659 55 169 0.0 0.0 0.00 0.13 0.13 91 1008.1
20260509130600 55 153 0.0 3.0 0.00 0.13 0.13 91 1008.1
20260509130359 55 136 0.0 3.0 0.00 0.13 0.13 91 1008.1
20260509130300 55 139 0.0 3.0 0.00 0.13 0.13 91 1008.1
20260509130159 55 139 0.0 3.0 0.00 0.13 0.13 91 1008.0
20260509130059 55 140 0.0 3.0 0.00 0.13 0.13 91 1007.9
20260509125902 55 117 0.0 3.0 0.00 0.13 0.13 91 1008.0
20260509125759 55 175 0.0 3.0 0.00 0.13 0.13 91 1008.0
20260509125659 55 164 2.0 4.0 0.00 0.13 0.13 91 1008.0
20260509125602 55 167 0.0 4.0 0.00 0.13 0.13 91 1008.1
20260509125459 55 121 0.0 4.0 0.00 0.13 0.13 91 1008.1
20260509125400 55 126 0.0 4.0 0.00 0.13 0.13 91 1008.1
20260509125259 55 106 0.0 5.0 0.00 0.13 0.13 91 1008.2
20260509125202 55 172 0.0 5.0 0.00 0.13 0.13 91 1008.2
20260509125100 55 165 0.0 5.0 0.00 0.13 0.13 91 1008.1
20260509124959 55 126 1.0 5.0 0.00 0.13 0.13 91 1008.1
20260509124900 55 107 4.0 5.0 0.00 0.13 0.13 91 1008.1
20260509124759 55 163 1.0 5.0 0.00 0.13 0.13 91 1008.1
20260509124700 55 150 0.0 5.0 0.00 0.13 0.13 91 1008.1
20260509124602 55 142 0.0 5.0 0.00 0.13 0.13 92 1008.2
20260509124459 55 168 2.0 5.0 0.00 0.13 0.13 92 1008.1
20260509124359 55 159 0.0 3.0 0.00 0.13 0.13 92 1008.1
20260509124300 55 120 0.0 3.0 0.00 0.13 0.13 92 1008.2
20260509124202 55 109 0.0 3.0 0.00 0.13 0.13 92 1008.1
20260509123959 55 110 0.0 3.0 0.00 0.13 0.13 92 1008.2
20260509123859 55 96 1.0 3.0 0.00 0.13 0.13 92 1008.2
20260509123801 55 93 1.0 3.0 0.00 0.13 0.13 92 1008.2
20260509123659 55 175 0.0 3.0 0.00 0.13 0.13 92 1008.2
20260509123602 55 105 1.0 3.0 0.00 0.13 0.13 92 1008.2
20260509123459 55 111 1.0 2.0 0.00 0.13 0.13 92 1008.1
20260509123400 55 165 0.0 1.0 0.00 0.13 0.13 92 1008.2
20260509123300 55 166 0.0 1.0 0.00 0.13 0.13 92 1008.2
20260509123100 55 128 0.0 1.0 0.00 0.13 0.13 92 1008.1
20260509122900 55 144 0.0 1.0 0.00 0.13 0.13 92 1008.2
20260509122800 55 146 0.0 1.0 0.00 0.13 0.13 92 1008.1
20260509122700 55 158 0.0 1.0 0.00 0.13 0.13 92 1008.2
20260509122559 55 165 0.0 1.0 0.00 0.13 0.13 92 1008.2
20260509122501 55 123 0.0 1.0 0.00 0.13 0.13 92 1008.1
20260509122400 54 86 0.0 1.0 0.00 0.13 0.13 92 1008.1
20260509122258 54 86 0.0 1.0 0.00 0.13 0.13 92 1008.2
20260509122159 54 153 0.0 0.0 0.00 0.13 0.13 92 1008.2
20260509122059 54 154 0.0 0.0 0.00 0.13 0.13 92 1008.2
20260509122000 54 154 0.0 0.0 0.00 0.13 0.13 92 1008.3
20260509121900 54 154 0.0 0.0 0.00 0.13 0.13 92 1008.3
20260509121801 54 154 0.0 0.0 0.00 0.13 0.13 92 1008.3
20260509121659 54 154 0.0 0.0 0.00 0.13 0.13 92 1008.3
20260509121601 54 154 0.0 0.0 0.00 0.13 0.13 92 1008.3
20260509121400 54 154 0.0 0.0 0.00 0.13 0.13 92 1008.3
20260509121159 54 154 0.0 0.0 0.00 0.13 0.13 92 1008.4
20260509121100 54 154 0.0 0.0 0.00 0.13 0.13 92 1008.4
20260509120959 54 154 0.0 0.0 0.00 0.13 0.13 92 1008.4
20260509120900 54 153 0.0 0.0 0.00 0.13 0.13 92 1008.4
20260509120759 54 154 0.0 0.0 0.00 0.13 0.13 92 1008.4
20260509120659 54 154 0.0 0.0 0.00 0.13 0.13 92 1008.4
20260509120559 54 154 0.0 0.0 0.00 0.13 0.13 92 1008.5
20260509120500 54 154 0.0 0.0 0.00 0.13 0.13 92 1008.4
20260509120401 54 154 0.0 0.0 0.00 0.13 0.13 92 1008.4
20260509120300 54 153 0.0 0.0 0.00 0.13 0.13 92 1008.4
20260509120059 54 154 0.0 0.0 0.00 0.13 0.13 92 1008.3
20260509115959 54 154 0.0 0.0 0.00 0.13 0.13 92 1008.3
20260509115558 54 154 0.0 2.0 0.01 0.13 0.13 91 1008.3
20260509115458 54 157 0.0 2.0 0.01 0.13 0.13 91 1008.2
20260509115359 54 191 0.0 2.0 0.01 0.13 0.13 91 1008.1
20260509115259 54 138 0.0 2.0 0.01 0.13 0.13 91 1008.1
20260509115158 54 142 0.0 2.0 0.01 0.13 0.13 91 1008.1
20260509115059 54 150 0.0 2.0 0.01 0.13 0.13 92 1008.1
20260509115000 54 150 0.0 2.0 0.01 0.13 0.13 92 1008.1
20260509114759 54 161 2.0 2.0 0.01 0.13 0.13 92 1008.1
20260509114659 54 139 1.0 1.0 0.01 0.13 0.13 91 1008.1
20260509114559 54 136 0.0 0.0 0.01 0.13 0.13 91 1008.0
20260509114458 54 136 0.0 0.0 0.01 0.13 0.13 91 1008.0
20260509114358 54 136 0.0 0.0 0.01 0.13 0.13 91 1008.0
20260509114258 54 136 0.0 0.0 0.01 0.13 0.13 91 1008.0
20260509114158 54 136 0.0 1.0 0.01 0.13 0.13 91 1008.1
20260509113959 54 136 0.0 4.0 0.01 0.13 0.13 91 1008.0
20260509113859 54 136 0.0 4.0 0.01 0.13 0.13 91 1008.0
20260509113800 54 136 0.0 4.0 0.01 0.13 0.13 91 1008.0
20260509113559 54 136 0.0 4.0 0.01 0.13 0.13 91 1008.0
20260509113459 54 136 0.0 4.0 0.01 0.13 0.13 91 1008.0
20260509113359 54 136 0.0 4.0 0.01 0.13 0.13 91 1008.0
20260509113258 54 128 1.0 4.0 0.01 0.13 0.13 91 1008.0
20260509113158 54 163 4.0 5.0 0.01 0.13 0.13 91 1008.0
20260509113058 54 158 1.0 5.0 0.01 0.13 0.13 91 1007.9
20260509112858 54 104 2.0 5.0 0.01 0.13 0.13 91 1008.0
20260509112759 54 137 2.0 5.0 0.01 0.13 0.13 91 1008.1
20260509112659 54 140 0.0 5.0 0.02 0.13 0.13 91 1008.1
20260509112559 54 116 2.0 5.0 0.02 0.13 0.13 91 1008.1
20260509112458 54 118 1.0 5.0 0.02 0.13 0.13 91 1008.1
20260509112358 54 160 5.0 5.0 0.02 0.13 0.13 91 1008.2
20260509112259 54 159 2.0 4.0 0.02 0.13 0.13 91 1008.2
20260509112158 54 157 0.0 4.0 0.02 0.13 0.13 91 1008.1
20260509111959 54 162 4.0 6.0 0.02 0.13 0.13 91 1008.1
20260509111858 54 168 2.0 6.0 0.02 0.13 0.13 91 1008.1
20260509111800 54 171 0.0 6.0 0.02 0.13 0.13 91 1008.1
20260509111659 54 142 1.0 6.0 0.03 0.13 0.13 91 1008.0
20260509111559 54 163 2.0 6.0 0.03 0.13 0.13 91 1008.0
20260509111459 54 169 4.0 6.0 0.03 0.13 0.13 91 1007.9
20260509111358 54 157 5.0 6.0 0.03 0.13 0.13 91 1008.1
20260509111259 54 121 5.0 6.0 0.03 0.13 0.13 91 1008.1
20260509111158 54 155 2.0 5.0 0.03 0.13 0.13 91 1008.0
20260509110958 54 144 2.0 5.0 0.03 0.13 0.13 91 1008.1
20260509110859 54 172 2.0 5.0 0.03 0.13 0.13 91 1008.1
20260509110759 54 188 3.0 5.0 0.03 0.13 0.13 91 1008.1
20260509110659 54 169 4.0 5.0 0.04 0.13 0.13 91 1008.1
20260509110559 54 155 1.0 4.0 0.04 0.13 0.13 91 1008.1
20260509110459 54 154 1.0 4.0 0.04 0.13 0.13 91 1008.2
20260509110259 54 146 1.0 4.0 0.04 0.13 0.13 91 1008.1
20260509110158 54 150 1.0 4.0 0.04 0.13 0.13 91 1008.0
20260509105859 54 163 4.0 4.0 0.05 0.13 0.13 91 1008.1
20260509105559 54 145 0.0 3.0 0.04 0.12 0.12 91 1008.1
20260509105500 54 163 1.0 3.0 0.04 0.12 0.12 91 1008.1
20260509105358 54 157 1.0 1.0 0.04 0.12 0.12 91 1008.1
20260509105257 54 155 0.0 0.0 0.04 0.12 0.12 91 1008.1
20260509105158 54 150 0.0 0.0 0.05 0.12 0.12 91 1008.1
20260509105059 54 148 0.0 0.0 0.05 0.12 0.12 91 1008.0
20260509104958 54 138 0.0 0.0 0.05 0.12 0.12 91 1008.0
20260509104859 54 138 0.0 0.0 0.05 0.12 0.12 91 1008.0
20260509104758 54 132 0.0 0.0 0.05 0.12 0.12 91 1007.9
20260509104659 54 63 0.0 0.0 0.05 0.12 0.12 91 1007.9
20260509104559 54 63 0.0 0.0 0.05 0.12 0.12 91 1007.9
20260509104459 54 63 0.0 0.0 0.05 0.12 0.12 91 1007.9
20260509104359 54 63 0.0 3.0 0.05 0.12 0.12 91 1007.9
20260509104259 54 63 0.0 3.0 0.05 0.12 0.12 91 1007.9
20260509104158 54 63 0.0 3.0 0.05 0.12 0.12 91 1007.8
20260509104058 54 63 0.0 3.0 0.05 0.12 0.12 91 1007.8
20260509103958 54 63 0.0 3.0 0.05 0.12 0.12 91 1007.8
20260509103859 54 63 0.0 3.0 0.05 0.12 0.12 91 1007.8
20260509103758 54 63 0.0 3.0 0.05 0.12 0.12 91 1007.8
20260509103659 54 63 0.0 3.0 0.05 0.12 0.12 91 1007.7
20260509103559 54 60 0.0 3.0 0.05 0.12 0.12 91 1007.7
20260509103458 54 28 3.0 3.0 0.05 0.12 0.12 91 1007.8
20260509103359 54 34 1.0 3.0 0.05 0.12 0.12 91 1007.8
20260509103258 54 5 2.0 2.0 0.05 0.12 0.12 91 1007.9
20260509103200 54 53 0.0 0.0 0.05 0.12 0.12 91 1007.9
20260509103059 54 87 0.0 0.0 0.05 0.12 0.12 91 1007.9
20260509102959 54 92 0.0 0.0 0.05 0.12 0.12 91 1008.0
20260509102900 54 92 0.0 0.0 0.05 0.12 0.12 91 1008.0
20260509102800 54 92 0.0 0.0 0.06 0.12 0.12 91 1008.1
20260509102701 54 92 0.0 0.0 0.05 0.11 0.11 91 1008.1
20260509102601 54 92 0.0 0.0 0.05 0.11 0.11 91 1008.1
20260509102501 54 92 0.0 0.0 0.05 0.11 0.11 91 1008.2
20260509102401 54 92 0.0 0.0 0.05 0.11 0.11 91 1008.3
20260509102300 54 92 0.0 0.0 0.05 0.11 0.11 91 1008.3
20260509102159 54 92 0.0 0.0 0.05 0.11 0.11 91 1008.4
20260509102100 54 92 0.0 0.0 0.05 0.11 0.11 91 1008.4
20260509102001 54 92 0.0 0.0 0.05 0.11 0.11 91 1008.4
20260509101759 54 92 0.0 0.0 0.05 0.11 0.11 91 1008.4
20260509101700 54 92 0.0 0.0 0.04 0.10 0.10 91 1008.4
20260509101600 54 92 0.0 0.0 0.04 0.10 0.10 91 1008.4
20260509101459 54 92 0.0 0.0 0.04 0.10 0.10 91 1008.4
20260509101401 54 92 0.0 0.0 0.04 0.10 0.10 91 1008.4
20260509101300 54 92 0.0 0.0 0.04 0.10 0.10 91 1008.4
20260509101100 54 92 0.0 0.0 0.04 0.10 0.10 91 1008.4
20260509100959 54 92 0.0 0.0 0.04 0.10 0.10 91 1008.3
20260509100859 54 92 0.0 0.0 0.04 0.10 0.10 91 1008.3
20260509100801 54 92 0.0 0.0 0.04 0.10 0.10 91 1008.3
20260509100659 54 92 0.0 0.0 0.03 0.09 0.09 90 1008.3
20260509100601 54 92 0.0 0.0 0.03 0.09 0.09 90 1008.4
20260509100500 54 92 0.0 0.0 0.03 0.09 0.09 91 1008.4
20260509100359 54 92 0.0 0.0 0.03 0.09 0.09 91 1008.4
20260509100300 54 92 0.0 0.0 0.03 0.09 0.09 90 1008.4
20260509100000 54 92 0.0 0.0 0.02 0.08 0.08 90 1008.4
20260509095858 54 92 0.0 0.0 0.02 0.08 0.08 90 1008.5
20260509095800 54 92 0.0 0.0 0.03 0.08 0.08 90 1008.5
20260509095659 54 92 0.0 0.0 0.03 0.08 0.08 90 1008.5
20260509095558 54 92 0.0 0.0 0.03 0.08 0.08 90 1008.5
20260509095458 54 92 0.0 0.0 0.03 0.08 0.08 90 1008.4
20260509095400 54 92 0.0 0.0 0.03 0.08 0.08 90 1008.5
20260509095258 54 92 0.0 0.0 0.03 0.08 0.08 90 1008.5
20260509095201 54 92 0.0 0.0 0.02 0.07 0.07 90 1008.5
20260509095059 54 92 0.0 0.0 0.02 0.07 0.07 90 1008.5
20260509094959 54 92 0.0 0.0 0.02 0.07 0.07 90 1008.5
20260509094858 54 92 0.0 0.0 0.02 0.07 0.07 90 1008.6
20260509094758 54 92 0.0 0.0 0.02 0.07 0.07 90 1008.6
20260509094658 54 92 0.0 0.0 0.02 0.07 0.07 90 1008.5
20260509094558 54 92 0.0 0.0 0.02 0.07 0.07 90 1008.5
20260509094459 54 92 0.0 0.0 0.02 0.07 0.07 90 1008.5
20260509094359 54 92 0.0 0.0 0.02 0.07 0.07 90 1008.6
20260509094259 54 92 0.0 0.0 0.02 0.07 0.07 90 1008.5
20260509094159 54 92 0.0 0.0 0.02 0.07 0.07 90 1008.4
20260509094058 54 92 0.0 0.0 0.02 0.07 0.07 90 1008.4
20260509093959 54 92 0.0 0.0 0.03 0.07 0.07 90 1008.5
20260509093858 54 92 0.0 0.0 0.03 0.07 0.07 90 1008.4
20260509093759 54 92 0.0 0.0 0.03 0.07 0.07 90 1008.4
20260509093701 54 92 0.0 0.0 0.03 0.07 0.07 90 1008.4
20260509093559 54 92 0.0 0.0 0.03 0.07 0.07 90 1008.4
20260509093459 54 92 0.0 0.0 0.03 0.07 0.07 90 1008.4
20260509093359 54 92 0.0 0.0 0.03 0.07 0.07 90 1008.4
20260509093258 54 92 0.0 0.0 0.03 0.07 0.07 90 1008.4
20260509093201 54 92 0.0 0.0 0.03 0.07 0.07 90 1008.4
20260509093058 54 92 0.0 0.0 0.03 0.07 0.07 90 1008.4
20260509092958 54 92 0.0 0.0 0.03 0.07 0.07 90 1008.5
20260509092859 54 92 0.0 0.0 0.03 0.07 0.07 90 1008.4
20260509092801 54 92 0.0 0.0 0.02 0.06 0.06 90 1008.4
20260509092658 54 92 0.0 0.0 0.02 0.06 0.06 90 1008.3
20260509092459 54 92 0.0 0.0 0.02 0.06 0.06 90 1008.4
20260509092401 54 92 0.0 0.0 0.03 0.06 0.06 90 1008.4
20260509092259 54 92 0.0 0.0 0.03 0.06 0.06 90 1008.3
20260509091959 54 92 0.0 0.0 0.03 0.06 0.06 90 1008.3
20260509091900 54 92 0.0 0.0 0.03 0.06 0.06 90 1008.3
20260509091759 54 92 0.0 0.0 0.03 0.06 0.06 90 1008.3
20260509091659 54 92 0.0 0.0 0.03 0.06 0.06 90 1008.3
20260509091559 54 92 0.0 0.0 0.03 0.06 0.06 90 1008.3
20260509091459 54 92 0.0 0.0 0.03 0.06 0.06 90 1008.3
20260509091358 54 92 0.0 0.0 0.03 0.06 0.06 90 1008.3
20260509091300 54 92 0.0 0.0 0.04 0.06 0.06 90 1008.3
20260509091200 54 92 0.0 0.0 0.04 0.06 0.06 90 1008.2
20260509090958 54 92 0.0 0.0 0.04 0.06 0.06 90 1008.3
20260509090858 54 92 0.0 0.0 0.04 0.06 0.06 90 1008.3
20260509090759 54 109 0.0 0.0 0.04 0.06 0.06 90 1008.3
20260509090658 54 115 0.0 0.0 0.04 0.06 0.06 90 1008.4
20260509090558 54 115 0.0 0.0 0.04 0.06 0.06 90 1008.4
20260509090459 54 115 0.0 0.0 0.04 0.06 0.06 90 1008.4
20260509090259 54 115 0.0 0.0 0.05 0.06 0.06 90 1008.4
20260509090100 54 115 0.0 0.0 0.05 0.06 0.06 90 1008.4
20260509085959 54 115 0.0 0.0 0.05 0.06 0.06 90 1008.5
20260509085858 54 115 0.0 0.0 0.05 0.06 0.06 89 1008.5
20260509085759 54 121 0.0 0.0 0.04 0.05 0.05 89 1008.5
20260509085701 54 121 0.0 0.0 0.04 0.05 0.05 89 1008.5
20260509085559 54 121 0.0 0.0 0.04 0.05 0.05 90 1008.6
20260509085458 54 121 0.0 0.0 0.04 0.05 0.05 89 1008.6
20260509085359 54 121 0.0 0.0 0.04 0.05 0.05 89 1008.6
20260509085259 54 121 0.0 0.0 0.04 0.05 0.05 89 1008.6
20260509085059 54 121 0.0 0.0 0.04 0.05 0.05 89 1008.8
20260509084958 54 121 0.0 0.0 0.04 0.05 0.05 89 1008.8
20260509084900 54 121 0.0 0.0 0.04 0.05 0.05 89 1008.9
20260509084759 54 121 0.0 0.0 0.04 0.05 0.05 89 1008.9
20260509084658 54 121 0.0 0.0 0.04 0.05 0.05 89 1009.0
20260509084559 54 121 0.0 0.0 0.04 0.05 0.05 89 1009.0
20260509084459 54 121 0.0 0.0 0.04 0.05 0.05 89 1009.0
20260509084358 54 122 0.0 0.0 0.04 0.05 0.05 89 1009.1
20260509084058 54 122 0.0 0.0 0.04 0.05 0.05 89 1009.0
20260509084000 54 121 0.0 0.0 0.03 0.04 0.04 89 1009.1
20260509083758 54 121 0.0 0.0 0.03 0.04 0.04 89 1009.1
20260509083658 54 121 0.0 0.0 0.03 0.04 0.04 89 1009.0
20260509083459 54 122 0.0 0.0 0.03 0.04 0.04 89 1009.0
20260509083358 54 121 0.0 0.0 0.03 0.04 0.04 89 1009.0
20260509083159 54 121 0.0 0.0 0.03 0.04 0.04 89 1009.1
20260509082958 54 121 0.0 0.0 0.03 0.04 0.04 89 1009.1
20260509082900 54 122 0.0 0.0 0.03 0.04 0.04 89 1009.1
20260509082758 54 121 0.0 0.0 0.03 0.04 0.04 89 1009.1
20260509082658 54 121 0.0 0.0 0.03 0.04 0.04 89 1009.2
20260509082558 54 121 0.0 0.0 0.03 0.04 0.04 89 1009.2
20260509082458 54 121 0.0 0.0 0.04 0.04 0.04 89 1009.2
20260509082258 54 121 0.0 0.0 0.03 0.03 0.03 89 1009.1
20260509082200 54 122 0.0 0.0 0.03 0.03 0.03 89 1009.1
20260509082101 54 121 0.0 0.0 0.03 0.03 0.03 89 1009.2
20260509081958 54 121 0.0 0.0 0.03 0.03 0.03 89 1009.1
20260509081658 54 121 0.0 0.0 0.03 0.03 0.03 88 1009.2
20260509081600 54 122 0.0 0.0 0.03 0.03 0.03 88 1009.2
20260509081458 55 121 0.0 0.0 0.03 0.03 0.03 88 1009.1
20260509081358 54 121 0.0 0.0 0.03 0.03 0.03 88 1009.2
20260509081301 55 121 0.0 0.0 0.02 0.02 0.02 88 1009.3
20260509081159 54 121 0.0 0.0 0.02 0.02 0.02 88 1009.2
20260509081059 55 121 0.0 0.0 0.02 0.02 0.02 88 1009.3
20260509080958 54 122 0.0 0.0 0.02 0.02 0.02 88 1009.3
20260509080758 54 121 0.0 0.0 0.02 0.02 0.02 88 1009.3
20260509080659 55 117 0.0 0.0 0.02 0.02 0.02 88 1009.3
20260509080558 54 123 0.0 0.0 0.02 0.02 0.02 88 1009.2
20260509080458 54 123 0.0 0.0 0.02 0.02 0.02 88 1009.2
20260509080358 55 123 0.0 0.0 0.01 0.01 0.01 88 1009.3
20260509080200 54 116 0.0 0.0 0.01 0.01 0.01 88 1009.4
20260509080059 55 40 0.0 0.0 0.01 0.01 0.01 88 1009.3
20260509075958 54 40 0.0 0.0 0.01 0.01 0.01 88 1009.3
20260509075858 55 40 0.0 0.0 0.01 0.01 0.01 88 1009.2
20260509075659 54 40 0.0 0.0 0.01 0.01 0.01 88 1009.3
20260509075558 54 40 0.0 0.0 0.01 0.01 0.01 88 1009.3
20260509075459 54 5 0.0 0.0 0.01 0.01 0.01 88 1009.3
20260509075400 54 5 0.0 0.0 0.01 0.01 0.01 88 1009.2
20260509075300 55 5 0.0 0.0 0.01 0.01 0.01 88 1009.2
20260509075159 55 5 0.0 0.0 0.01 0.01 0.01 88 1009.1
20260509075058 55 5 0.0 0.0 0.01 0.01 0.01 88 1009.1
20260509074958 55 5 0.0 0.0 0.01 0.01 0.01 88 1009.0
20260509074858 54 5 0.0 0.0 0.01 0.01 0.01 88 1009.0
20260509074758 54 5 0.0 0.0 0.01 0.01 0.01 88 1009.0
20260509074559 55 5 0.0 0.0 0.01 0.01 0.01 88 1009.0
20260509074401 55 5 0.0 0.0 0.01 0.01 0.01 88 1009.0
20260509074200 54 5 0.0 0.0 0.01 0.01 0.01 87 1009.0
20260509074059 54 5 0.0 0.0 0.01 0.01 0.01 87 1009.0
20260509073958 55 5 0.0 0.0 0.01 0.01 0.01 87 1009.1
20260509073859 55 5 0.0 0.0 0.01 0.01 0.01 87 1009.0
20260509073759 54 5 0.0 0.0 0.01 0.01 0.01 87 1009.0
20260509073659 55 5 0.0 0.0 0.01 0.01 0.01 87 1009.0
20260509073458 55 5 0.0 0.0 0.01 0.01 0.01 87 1009.1
20260509073359 54 5 0.0 0.0 0.01 0.01 0.01 87 1009.0
20260509073259 55 5 0.0 0.0 0.01 0.01 0.01 87 1009.1
20260509073157 55 5 0.0 0.0 0.01 0.01 0.01 87 1009.1
20260509073058 55 5 0.0 0.0 0.01 0.01 0.01 87 1009.1
20260509072958 55 5 0.0 0.0 0.01 0.01 0.01 87 1009.1
20260509072858 55 5 0.0 0.0 0.01 0.01 0.01 87 1009.2
20260509072800 55 5 0.0 0.0 0.01 0.01 0.01 87 1009.1
20260509072659 55 5 0.0 0.0 0.01 0.01 0.01 87 1009.1
20260509072558 55 5 0.0 0.0 0.01 0.01 0.01 87 1009.1
20260509072458 55 5 0.0 0.0 0.00 0.00 0.00 87 1009.2
20260509072358 55 5 0.0 0.0 0.00 0.00 0.00 87 1009.1
20260509072258 55 5 0.0 0.0 0.00 0.00 0.00 87 1009.1
20260509072157 55 5 0.0 0.0 0.00 0.00 0.00 87 1009.1
20260509072059 55 5 0.0 0.0 0.00 0.00 0.00 87 1009.1
20260509071959 55 5 0.0 0.0 0.00 0.00 0.00 87 1009.0
20260509071900 55 5 0.0 0.0 0.00 0.00 0.00 87 1009.0
20260509071758 55 5 0.0 0.0 0.00 0.00 0.00 87 1009.0
20260509071659 55 5 0.0 0.0 0.00 0.00 0.00 87 1009.0
20260509071559 55 5 0.0 0.0 0.00 0.00 0.00 87 1009.0
20260509071459 55 5 0.0 0.0 0.00 0.00 0.00 87 1009.0
20260509071400 55 9 0.0 0.0 0.00 0.00 0.00 87 1009.0
20260509071301 55 28 0.0 0.0 0.00 0.00 0.00 87 1009.1
20260509071100 55 24 0.0 0.0 0.00 0.00 0.00 87 1009.2
20260509070959 55 24 0.0 0.0 0.00 0.00 0.00 87 1009.1
20260509070859 55 24 0.0 0.0 0.00 0.00 0.00 86 1009.2
20260509070759 55 24 0.0 0.0 0.00 0.00 0.00 86 1009.2
20260509070658 55 24 0.0 0.0 0.00 0.00 0.00 86 1009.2
20260509070559 55 24 0.0 0.0 0.00 0.00 0.00 86 1009.2
20260509070458 55 24 0.0 0.0 0.00 0.00 0.00 86 1009.2
20260509070359 55 24 0.0 0.0 0.00 0.00 0.00 86 1009.3
20260509070158 55 24 0.0 0.0 0.00 0.00 0.00 86 1009.4
20260509070100 55 24 0.0 0.0 0.00 0.00 0.00 86 1009.4
20260509065858 55 24 0.0 0.0 0.00 0.00 0.00 86 1009.4
20260509065800 55 24 0.0 0.0 0.00 0.00 0.00 86 1009.4
20260509065359 55 25 0.0 0.0 0.00 0.00 0.00 86 1009.4
20260509065158 55 15 0.0 0.0 0.00 0.00 0.00 86 1009.5
20260509065058 55 15 0.0 0.0 0.00 0.00 0.00 86 1009.4
20260509064958 55 15 0.0 0.0 0.00 0.00 0.00 86 1009.5
20260509064758 55 23 0.0 0.0 0.00 0.00 0.00 86 1009.4
20260509064658 55 34 0.0 0.0 0.00 0.00 0.00 86 1009.5
20260509064558 55 5 0.0 0.0 0.00 0.00 0.00 86 1009.7
20260509064459 55 336 0.0 0.0 0.00 0.00 0.00 86 1009.7
20260509064258 55 336 0.0 0.0 0.00 0.00 0.00 85 1009.5
20260509064158 55 34 0.0 0.0 0.00 0.00 0.00 85 1009.5
20260509064058 55 35 0.0 0.0 0.00 0.00 0.00 85 1009.5
20260509063959 55 35 0.0 0.0 0.00 0.00 0.00 85 1009.6
20260509063858 55 5 0.0 0.0 0.00 0.00 0.00 85 1009.6
20260509063758 55 5 0.0 0.0 0.00 0.00 0.00 85 1009.7
20260509063559 55 5 0.0 0.0 0.00 0.00 0.00 85 1009.7
20260509063458 55 5 0.0 0.0 0.00 0.00 0.00 85 1009.6
20260509063400 55 5 0.0 0.0 0.00 0.00 0.00 85 1009.6
20260509063258 55 5 0.0 0.0 0.00 0.00 0.00 85 1009.6
20260509063159 55 5 0.0 0.0 0.00 0.00 0.00 85 1009.6
20260509063059 55 351 0.0 0.0 0.00 0.00 0.00 85 1009.7
20260509062858 55 351 0.0 0.0 0.00 0.00 0.00 85 1009.6
20260509062758 55 351 0.0 0.0 0.00 0.00 0.00 85 1009.6
20260509062659 55 351 0.0 0.0 0.00 0.00 0.00 85 1009.7
20260509062600 55 351 0.0 0.0 0.00 0.00 0.00 84 1009.7
20260509062459 55 355 0.0 0.0 0.00 0.00 0.00 85 1009.7
20260509062400 55 351 0.0 0.0 0.00 0.00 0.00 84 1009.7
20260509062058 55 340 0.0 0.0 0.00 0.00 0.00 84 1009.7
20260509061959 55 340 0.0 0.0 0.00 0.00 0.00 84 1009.7
20260509061858 55 340 0.0 0.0 0.00 0.00 0.00 84 1009.7
20260509061802 55 340 0.0 0.0 0.00 0.00 0.00 84 1009.6
20260509061658 55 340 0.0 0.0 0.00 0.00 0.00 84 1009.7
20260509061558 55 40 0.0 0.0 0.00 0.00 0.00 84 1009.6
20260509061458 55 40 0.0 0.0 0.00 0.00 0.00 84 1009.7
20260509061358 55 40 0.0 0.0 0.00 0.00 0.00 84 1009.6
20260509061158 55 40 0.0 0.0 0.00 0.00 0.00 84 1009.6
20260509061058 55 40 0.0 0.0 0.00 0.00 0.00 84 1009.7
20260509060959 55 40 0.0 0.0 0.00 0.00 0.00 84 1009.6
20260509060858 55 40 0.0 0.0 0.00 0.00 0.00 83 1009.6
20260509060758 55 40 0.0 0.0 0.00 0.00 0.00 83 1009.6
20260509060659 55 40 0.0 0.0 0.00 0.00 0.00 83 1009.6
20260509060558 55 40 0.0 0.0 0.00 0.00 0.00 83 1009.6
20260509060458 55 40 0.0 0.0 0.00 0.00 0.00 83 1009.6
20260509060358 55 40 0.0 0.0 0.00 0.00 0.00 83 1009.6
20260509060259 55 40 0.0 0.0 0.00 0.00 0.00 83 1009.7
20260509060159 55 40 0.0 0.0 0.00 0.00 0.00 83 1009.6
20260509060059 55 40 0.0 1.0 0.00 0.00 0.00 83 1009.6
20260509060001 55 40 0.0 2.0 0.00 0.00 0.00 83 1009.6
20260509055858 55 40 0.0 2.0 0.00 0.00 0.00 83 1009.5
20260509055759 55 40 0.0 2.0 0.00 0.00 0.00 83 1009.4
20260509055658 55 40 0.0 2.0 0.00 0.00 0.00 83 1009.4
20260509055458 55 23 0.0 2.0 0.00 0.00 0.00 83 1009.5
20260509055359 55 44 0.0 2.0 0.00 0.00 0.00 83 1009.6
20260509055258 55 25 0.0 2.0 0.00 0.00 0.00 83 1009.6
20260509055159 55 39 1.0 2.0 0.00 0.00 0.00 83 1009.6
20260509055103 55 39 0.0 2.0 0.00 0.00 0.00 83 1009.6
20260509055000 55 39 0.0 2.0 0.00 0.00 0.00 83 1009.6
20260509054858 55 39 0.0 2.0 0.00 0.00 0.00 83 1009.5
20260509054758 55 39 1.0 2.0 0.00 0.00 0.00 83 1009.5
20260509054659 55 36 1.0 2.0 0.00 0.00 0.00 83 1009.5
20260509054500 55 22 0.0 1.0 0.00 0.00 0.00 82 1009.4
20260509054359 55 22 1.0 1.0 0.00 0.00 0.00 82 1009.5
20260509054259 55 22 0.0 1.0 0.00 0.00 0.00 82 1009.5
20260509054159 55 22 0.0 1.0 0.00 0.00 0.00 82 1009.6
20260509053958 55 22 0.0 1.0 0.00 0.00 0.00 82 1009.5
20260509053859 55 22 0.0 1.0 0.00 0.00 0.00 82 1009.5
20260509053800 55 22 0.0 1.0 0.00 0.00 0.00 82 1009.6
20260509053659 55 22 0.0 1.0 0.00 0.00 0.00 82 1009.5
20260509053558 55 22 0.0 1.0 0.00 0.00 0.00 82 1009.6
20260509053458 55 22 0.0 1.0 0.00 0.00 0.00 82 1009.5
20260509053359 55 22 0.0 1.0 0.00 0.00 0.00 82 1009.6
20260509053258 55 22 0.0 1.0 0.00 0.00 0.00 82 1009.6
20260509053158 55 22 0.0 3.0 0.00 0.00 0.00 82 1009.5
20260509053058 55 22 0.0 3.0 0.00 0.00 0.00 82 1009.5
20260509053001 55 22 0.0 3.0 0.00 0.00 0.00 82 1009.5
20260509052859 55 22 0.0 3.0 0.00 0.00 0.00 82 1009.6
20260509052557 55 22 0.0 3.0 0.00 0.00 0.00 81 1009.5
20260509052458 56 22 0.0 3.0 0.00 0.00 0.00 81 1009.5
20260509052358 56 22 1.0 3.0 0.00 0.00 0.00 81 1009.6
20260509052259 56 22 2.0 2.0 0.00 0.00 0.00 81 1009.6
20260509052200 56 22 0.0 2.0 0.00 0.00 0.00 81 1009.5
20260509052059 56 22 0.0 2.0 0.00 0.00 0.00 81 1009.6
20260509052001 56 22 0.0 2.0 0.00 0.00 0.00 81 1009.6
20260509051858 56 22 0.0 3.0 0.00 0.00 0.00 81 1009.7
20260509051758 56 22 0.0 3.0 0.00 0.00 0.00 81 1009.6
20260509051258 56 26 1.0 3.0 0.00 0.00 0.00 81 1009.5
20260509051159 56 355 0.0 3.0 0.00 0.00 0.00 81 1009.5
20260509051100 56 355 0.0 3.0 0.00 0.00 0.00 81 1009.6
20260509050958 56 5 1.0 3.0 0.00 0.00 0.00 81 1009.6
20260509050858 56 48 0.0 4.0 0.00 0.00 0.00 81 1009.6
20260509050759 56 48 0.0 6.0 0.00 0.00 0.00 81 1009.6
20260509050659 56 48 0.0 6.0 0.00 0.00 0.00 81 1009.5
20260509050558 56 48 1.0 6.0 0.00 0.00 0.00 81 1009.6
20260509050458 56 32 1.0 6.0 0.00 0.00 0.00 81 1009.5
20260509050359 56 32 2.0 6.0 0.00 0.00 0.00 81 1009.5
20260509050259 56 5 0.0 6.0 0.00 0.00 0.00 80 1009.6
20260509050200 56 5 2.0 6.0 0.00 0.00 0.00 80 1009.6
20260509050059 56 27 1.0 6.0 0.00 0.00 0.00 80 1009.6
20260509045958 56 10 2.0 6.0 0.00 0.00 0.00 80 1009.7
20260509045858 56 14 4.0 5.0 0.00 0.00 0.00 80 1009.6
20260509045758 56 344 1.0 4.0 0.00 0.00 0.00 80 1009.6
20260509045658 56 5 2.0 4.0 0.00 0.00 0.00 80 1009.6
20260509045459 56 28 0.0 4.0 0.00 0.00 0.00 80 1009.7
20260509045258 56 28 0.0 5.0 0.00 0.00 0.00 80 1009.7
20260509045159 56 28 0.0 5.0 0.00 0.00 0.00 80 1009.6
20260509045059 56 28 2.0 5.0 0.00 0.00 0.00 80 1009.6
20260509044958 56 355 1.0 6.0 0.00 0.00 0.00 80 1009.7
20260509044859 56 9 1.0 6.0 0.00 0.00 0.00 80 1009.5
20260509044759 56 19 0.0 6.0 0.00 0.00 0.00 80 1009.7
20260509044658 56 19 0.0 6.0 0.00 0.00 0.00 80 1009.6
20260509044559 56 19 2.0 6.0 0.00 0.00 0.00 80 1009.6
20260509044359 56 17 3.0 6.0 0.00 0.00 0.00 79 1009.6
20260509044300 56 355 2.0 6.0 0.00 0.00 0.00 79 1009.7
20260509044159 56 350 2.0 6.0 0.00 0.00 0.00 79 1009.6
20260509044100 56 28 4.0 5.0 0.00 0.00 0.00 79 1009.6
20260509043958 56 5 1.0 4.0 0.00 0.00 0.00 79 1009.5
20260509043658 56 20 1.0 4.0 0.00 0.00 0.00 79 1009.6
20260509043559 56 11 3.0 4.0 0.00 0.00 0.00 79 1009.6
20260509043458 56 346 3.0 4.0 0.00 0.00 0.00 79 1009.6
20260509043402 56 338 1.0 4.0 0.00 0.00 0.00 79 1009.6
20260509043159 56 11 1.0 4.0 0.00 0.00 0.00 79 1009.7
20260509043101 56 341 0.0 3.0 0.00 0.00 0.00 79 1009.7
20260509042959 56 341 0.0 3.0 0.00 0.00 0.00 79 1009.7
20260509042859 56 341 0.0 3.0 0.00 0.00 0.00 79 1009.8
20260509042701 56 341 0.0 3.0 0.00 0.00 0.00 79 1009.9
20260509042500 56 341 0.0 3.0 0.00 0.00 0.00 79 1009.8
20260509042359 56 348 0.0 2.0 0.00 0.00 0.00 79 1009.7
20260509042259 56 15 0.0 2.0 0.00 0.00 0.00 79 1009.8
20260509042200 56 13 2.0 2.0 0.00 0.00 0.00 79 1009.6
20260509042059 56 17 0.0 2.0 0.00 0.00 0.00 79 1009.7
20260509042000 56 17 1.0 2.0 0.00 0.00 0.00 79 1009.7
20260509041859 56 5 0.0 0.0 0.00 0.00 0.00 79 1009.7
20260509041800 56 29 0.0 0.0 0.00 0.00 0.00 79 1009.7
20260509041701 56 32 0.0 0.0 0.00 0.00 0.00 78 1009.7
20260509041601 56 21 0.0 0.0 0.00 0.00 0.00 78 1009.8
20260509041459 56 11 0.0 0.0 0.00 0.00 0.00 78 1009.8
20260509041359 56 11 0.0 0.0 0.00 0.00 0.00 78 1009.8
20260509041159 56 11 0.0 0.0 0.00 0.00 0.00 78 1009.9
20260509041059 56 11 0.0 0.0 0.00 0.00 0.00 78 1009.9
20260509041000 56 11 0.0 0.0 0.00 0.00 0.00 78 1009.8
20260509040901 56 11 0.0 0.0 0.00 0.00 0.00 78 1009.8
20260509040800 56 11 0.0 0.0 0.00 0.00 0.00 78 1009.8
20260509040658 56 11 0.0 0.0 0.00 0.00 0.00 78 1009.8
20260509040600 56 360 0.0 0.0 0.00 0.00 0.00 78 1009.8
20260509040400 56 14 0.0 2.0 0.00 0.00 0.00 78 1009.7
20260509040159 56 13 0.0 2.0 0.00 0.00 0.00 78 1009.9
20260509040100 56 26 0.0 2.0 0.00 0.00 0.00 78 1009.8
20260509040001 56 26 0.0 2.0 0.00 0.00 0.00 78 1009.9
20260509035902 56 26 0.0 2.0 0.00 0.00 0.00 78 1009.9
20260509035800 56 26 0.0 3.0 0.00 0.00 0.00 78 1009.9
20260509035700 56 26 0.0 3.0 0.00 0.00 0.00 78 1009.9
20260509035501 56 26 0.0 3.0 0.00 0.00 0.00 78 1009.9
20260509035300 56 26 0.0 3.0 0.00 0.00 0.00 78 1009.8
20260509035200 56 26 0.0 3.0 0.00 0.00 0.00 78 1009.8
20260509035100 56 26 1.0 4.0 0.00 0.00 0.00 78 1009.8
20260509035000 57 27 3.0 4.0 0.00 0.00 0.00 78 1009.8
20260509034800 56 329 0.0 4.0 0.00 0.00 0.00 77 1009.8
20260509034602 57 34 0.0 4.0 0.00 0.00 0.00 77 1009.8
20260509034403 57 34 1.0 4.0 0.00 0.00 0.00 77 1009.8
20260509034300 57 9 2.0 4.0 0.00 0.00 0.00 77 1009.8
20260509034200 57 360 1.0 4.0 0.00 0.00 0.00 77 1009.8
20260509034100 57 25 4.0 4.0 0.00 0.00 0.00 77 1009.8
20260509034000 57 13 3.0 4.0 0.00 0.00 0.00 77 1009.9
20260509033901 57 355 1.0 4.0 0.00 0.00 0.00 77 1009.9
20260509033800 57 355 0.0 4.0 0.00 0.00 0.00 77 1009.9
20260509033700 57 355 0.0 4.0 0.00 0.00 0.00 77 1010.0
20260509033601 57 355 0.0 4.0 0.00 0.00 0.00 77 1009.9
20260509033500 57 355 0.0 4.0 0.00 0.00 0.00 77 1010.0
20260509033402 57 355 0.0 4.0 0.00 0.00 0.00 77 1010.0
20260509033301 57 355 1.0 4.0 0.00 0.00 0.00 77 1010.0
20260509033202 57 26 3.0 3.0 0.00 0.00 0.00 77 1009.9
20260509033100 57 17 2.0 3.0 0.00 0.00 0.00 77 1010.0
20260509033000 57 17 0.0 3.0 0.00 0.00 0.00 77 1010.0
20260509032902 57 17 0.0 3.0 0.00 0.00 0.00 77 1010.1
20260509032800 57 17 0.0 3.0 0.00 0.00 0.00 77 1010.0
20260509032700 57 17 1.0 3.0 0.00 0.00 0.00 77 1010.0
20260509032601 57 17 0.0 3.0 0.00 0.00 0.00 76 1010.0
20260509032500 57 17 0.0 3.0 0.00 0.00 0.00 76 1010.0
20260509032400 57 17 0.0 3.0 0.00 0.00 0.00 76 1010.1
20260509032301 57 17 2.0 4.0 0.00 0.00 0.00 76 1010.1
20260509032200 57 10 2.0 4.0 0.00 0.00 0.00 76 1010.1
20260509031901 57 19 0.0 4.0 0.00 0.00 0.00 76 1010.2
20260509031800 57 19 0.0 4.0 0.00 0.00 0.00 76 1010.2
20260509031700 57 19 2.0 4.0 0.00 0.00 0.00 76 1010.2
20260509031601 57 11 1.0 4.0 0.00 0.00 0.00 76 1010.2
20260509031502 57 13 2.0 4.0 0.00 0.00 0.00 76 1010.2
20260509031401 57 346 1.0 2.0 0.00 0.00 0.00 76 1010.2
20260509031301 57 360 0.0 2.0 0.00 0.00 0.00 76 1010.2
20260509031200 57 360 0.0 3.0 0.00 0.00 0.00 76 1010.2
20260509031101 57 360 0.0 3.0 0.00 0.00 0.00 76 1010.2
20260509030800 58 355 1.0 3.0 0.00 0.00 0.00 75 1010.2
20260509030600 58 355 0.0 3.0 0.00 0.00 0.00 75 1010.3
20260509030500 58 355 1.0 4.0 0.00 0.00 0.00 75 1010.2
20260509030301 58 11 2.0 4.0 0.00 0.00 0.00 75 1010.2
20260509030201 58 24 2.0 4.0 0.00 0.00 0.00 74 1010.1
20260509030101 58 33 0.0 4.0 0.00 0.00 0.00 74 1010.2
20260509030004 58 34 0.0 4.0 0.00 0.00 0.00 74 1010.2
20260509025901 58 34 1.0 4.0 0.00 0.00 0.00 74 1010.1
20260509025800 58 22 1.0 5.0 0.00 0.00 0.00 74 1010.2
20260509025701 58 20 3.0 5.0 0.00 0.00 0.00 74 1010.3
20260509025600 58 343 1.0 5.0 0.00 0.00 0.00 73 1010.3
20260509025500 58 343 1.0 5.0 0.00 0.00 0.00 73 1010.2
20260509025402 59 342 0.0 5.0 0.00 0.00 0.00 73 1010.1
20260509025300 59 343 3.0 5.0 0.00 0.00 0.00 73 1010.2
20260509025201 59 320 1.0 5.0 0.00 0.00 0.00 73 1010.2
20260509024901 59 12 2.0 8.0 0.00 0.00 0.00 72 1010.2
20260509024802 59 342 1.0 8.0 0.00 0.00 0.00 71 1010.2
20260509024702 59 360 2.0 8.0 0.00 0.00 0.00 71 1010.3
20260509024601 60 355 1.0 8.0 0.00 0.00 0.00 71 1010.2
20260509024501 60 13 1.0 10.0 0.00 0.00 0.00 71 1010.1
20260509024402 60 342 2.0 10.0 0.00 0.00 0.00 70 1010.1
20260509024301 60 338 4.0 10.0 0.00 0.00 0.00 70 1010.2
20260509024203 60 337 4.0 10.0 0.00 0.00 0.00 70 1010.2
20260509024001 60 324 3.0 10.0 0.00 0.00 0.00 69 1010.0
20260509023901 61 9 2.0 10.0 0.00 0.00 0.00 68 1009.9
20260509023800 61 335 1.0 10.0 0.00 0.00 0.00 68 1010.0
20260509023701 61 355 2.0 10.0 0.00 0.00 0.00 67 1010.1
20260509023601 61 339 3.0 9.0 0.00 0.00 0.00 66 1010.1
20260509023501 61 360 1.0 5.0 0.00 0.00 0.00 66 1010.0
20260509023401 61 5 4.0 5.0 0.00 0.00 0.00 65 1010.2
20260509023303 62 40 2.0 4.0 0.00 0.00 0.00 64 1010.2
20260509023200 62 347 2.0 4.0 0.00 0.00 0.00 62 1010.1
20260509023102 62 232 2.0 4.0 0.00 0.00 0.00 61 1010.1
20260509023001 62 261 0.0 4.0 0.00 0.00 0.00 60 1009.9
20260509022900 62 257 1.0 4.0 0.00 0.00 0.00 59 1009.8
20260509022559 61 200 0.0 4.0 0.00 0.00 0.00 58 1009.7
20260509022502 61 208 0.0 0.0 0.00 0.00 0.00 59 1009.7
20260509022401 61 198 0.0 0.0 0.00 0.00 0.00 59 1009.6
20260509022306 62 149 0.0 0.0 0.00 0.00 0.00 60 1009.7
20260509022201 62 149 0.0 0.0 0.00 0.00 0.00 59 1009.7
20260509022102 62 149 0.0 0.0 0.00 0.00 0.00 59 1009.7
20260509022001 62 149 0.0 0.0 0.00 0.00 0.00 60 1009.7
20260509021900 62 175 0.0 0.0 0.00 0.00 0.00 60 1009.6
20260509021802 62 175 0.0 0.0 0.00 0.00 0.00 59 1009.6
20260509021701 62 188 0.0 0.0 0.00 0.00 0.00 61 1009.6
20260509021601 62 202 0.0 0.0 0.00 0.00 0.00 61 1009.7
20260509021501 62 202 0.0 0.0 0.00 0.00 0.00 61 1009.7
20260509021401 62 202 0.0 0.0 0.00 0.00 0.00 60 1009.7
20260509021300 62 202 0.0 0.0 0.00 0.00 0.00 61 1009.7
20260509021100 62 202 0.0 0.0 0.00 0.00 0.00 62 1009.7
20260509021002 62 202 0.0 0.0 0.00 0.00 0.00 62 1009.7
20260509020901 62 202 0.0 0.0 0.00 0.00 0.00 60 1009.7
20260509020800 62 202 0.0 0.0 0.00 0.00 0.00 61 1009.7
20260509020700 62 207 0.0 0.0 0.00 0.00 0.00 60 1009.7
20260509020600 62 207 0.0 0.0 0.00 0.00 0.00 60 1009.7
20260509020501 62 207 0.0 0.0 0.00 0.00 0.00 60 1009.6
20260509020301 62 207 0.0 0.0 0.00 0.00 0.00 60 1009.7
20260509020201 62 207 0.0 0.0 0.00 0.00 0.00 62 1009.7
20260509020101 62 210 0.0 0.0 0.00 0.00 0.00 60 1009.7
20260509020000 62 210 0.0 0.0 0.00 0.00 0.00 60 1009.6
20260509015801 62 210 0.0 1.0 0.00 0.00 0.00 60 1009.6
20260509015501 62 210 0.0 2.0 0.00 0.00 0.00 60 1009.7
20260509015300 62 209 0.0 2.0 0.00 0.00 0.00 59 1009.6
20260509015201 62 209 0.0 2.0 0.00 0.00 0.00 60 1009.6
20260509015101 62 209 0.0 2.0 0.00 0.00 0.00 58 1009.6
20260509015000 62 209 0.0 2.0 0.00 0.00 0.00 58 1009.6
20260509014902 62 195 0.0 2.0 0.00 0.00 0.00 59 1009.6
20260509014801 62 221 0.0 1.0 0.00 0.00 0.00 60 1009.6
20260509014700 62 215 0.0 1.0 0.00 0.00 0.00 60 1009.6
20260509014601 62 215 0.0 1.0 0.00 0.00 0.00 60 1009.6
20260509014500 62 215 0.0 2.0 0.00 0.00 0.00 60 1009.6
20260509014400 62 215 0.0 2.0 0.00 0.00 0.00 59 1009.5
20260509014300 62 215 0.0 2.0 0.00 0.00 0.00 59 1009.5
20260509014200 62 215 0.0 2.0 0.00 0.00 0.00 59 1009.5
20260509014000 62 215 0.0 2.0 0.00 0.00 0.00 58 1009.5
20260509013802 62 215 0.0 2.0 0.00 0.00 0.00 60 1009.5
20260509013700 62 215 0.0 2.0 0.00 0.00 0.00 60 1009.4
20260509013600 62 215 0.0 2.0 0.00 0.00 0.00 61 1009.5
20260509013502 63 215 0.0 2.0 0.00 0.00 0.00 61 1009.5
20260509013400 63 215 0.0 3.0 0.00 0.00 0.00 60 1009.5
20260509013300 63 215 0.0 3.0 0.00 0.00 0.00 59 1009.4
20260509013200 63 215 0.0 3.0 0.00 0.00 0.00 59 1009.5
20260509013100 63 215 0.0 3.0 0.00 0.00 0.00 59 1009.5
20260509012901 63 215 0.0 3.0 0.00 0.00 0.00 59 1009.4
20260509012802 63 253 1.0 3.0 0.00 0.00 0.00 60 1009.5
20260509012459 63 184 0.0 3.0 0.00 0.00 0.00 59 1009.6
20260509012402 63 184 0.0 3.0 0.00 0.00 0.00 58 1009.6
20260509012301 63 184 0.0 3.0 0.00 0.00 0.00 58 1009.6
20260509012201 63 184 0.0 3.0 0.00 0.00 0.00 57 1009.6
20260509012102 63 184 0.0 3.0 0.00 0.00 0.00 57 1009.6
20260509011900 63 184 1.0 6.0 0.00 0.00 0.00 57 1009.6
20260509011801 63 244 0.0 6.0 0.00 0.00 0.00 59 1009.7
20260509011601 63 258 0.0 6.0 0.00 0.00 0.00 57 1009.6
20260509011500 63 259 0.0 6.0 0.00 0.00 0.00 56 1009.7
20260509011300 63 336 0.0 6.0 0.00 0.00 0.00 57 1009.7
20260509011200 63 302 1.0 6.0 0.00 0.00 0.00 56 1009.7
20260509011101 63 226 2.0 6.0 0.00 0.00 0.00 57 1009.7
20260509011000 64 223 0.0 5.0 0.00 0.00 0.00 58 1009.7
20260509010902 64 211 0.0 5.0 0.00 0.00 0.00 58 1009.7
20260509010802 64 211 0.0 5.0 0.00 0.00 0.00 58 1009.7
20260509010700 64 211 1.0 5.0 0.00 0.00 0.00 57 1009.8
20260509010602 64 208 1.0 5.0 0.00 0.00 0.00 56 1009.7
20260509010400 64 238 0.0 3.0 0.00 0.00 0.00 57 1009.7
20260509010302 64 250 3.0 3.0 0.00 0.00 0.00 57 1009.7
20260509010101 64 223 0.0 3.0 0.00 0.00 0.00 56 1009.7
20260509010003 64 223 1.0 3.0 0.00 0.00 0.00 56 1009.7
20260509005902 64 216 0.0 3.0 0.00 0.00 0.00 56 1009.6
20260509005801 64 177 1.0 3.0 0.00 0.00 0.00 55 1009.6
20260509005701 64 194 2.0 3.0 0.00 0.00 0.00 55 1009.6
20260509005601 64 217 0.0 3.0 0.00 0.00 0.00 53 1009.5
20260509005402 65 188 3.0 3.0 0.00 0.00 0.00 55 1009.6
20260509005306 65 263 0.0 2.0 0.00 0.00 0.00 54 1009.6
20260509005202 65 263 0.0 3.0 0.00 0.00 0.00 53 1009.5
20260509005101 65 239 0.0 3.0 0.00 0.00 0.00 54 1009.4
20260509004900 65 239 0.0 3.0 0.00 0.00 0.00 53 1009.4
20260509004800 65 225 0.0 3.0 0.00 0.00 0.00 53 1009.4
20260509004600 65 225 0.0 3.0 0.00 0.00 0.00 53 1009.4
20260509004401 65 195 1.0 3.0 0.00 0.00 0.00 52 1009.5
20260509004300 65 211 2.0 2.0 0.00 0.00 0.00 51 1009.4
20260509004101 65 194 0.0 2.0 0.00 0.00 0.00 51 1009.5
20260509004000 65 189 0.0 2.0 0.00 0.00 0.00 51 1009.4
20260509003802 65 207 0.0 2.0 0.00 0.00 0.00 51 1009.4
20260509003602 65 188 0.0 3.0 0.00 0.00 0.00 51 1009.4
20260509003501 65 188 0.0 4.0 0.00 0.00 0.00 51 1009.4
20260509003301 65 188 0.0 4.0 0.00 0.00 0.00 50 1009.3
20260509003204 65 188 0.0 4.0 0.00 0.00 0.00 50 1009.3
20260509003101 65 188 0.0 4.0 0.00 0.00 0.00 50 1009.3
20260509002800 65 164 1.0 4.0 0.00 0.00 0.00 49 1009.3
20260509002700 65 166 1.0 4.0 0.00 0.00 0.00 49 1009.3
20260509002602 65 214 1.0 4.0 0.00 0.00 0.00 50 1009.3
20260509002500 65 198 0.0 4.0 0.00 0.00 0.00 49 1009.2
20260509002400 65 200 0.0 4.0 0.00 0.00 0.00 50 1009.3
20260509002305 65 200 0.0 4.0 0.00 0.00 0.00 49 1009.3
20260509002200 65 202 3.0 4.0 0.00 0.00 0.00 50 1009.2
20260509002100 65 207 0.0 3.0 0.00 0.00 0.00 49 1009.3
20260509001901 65 67 0.0 3.0 0.00 0.00 0.00 49 1009.2
20260509001800 65 310 2.0 3.0 0.00 0.00 0.00 49 1009.2
20260509001700 65 166 0.0 2.0 0.00 0.00 0.00 50 1009.3
20260509001601 65 169 0.0 2.0 0.00 0.00 0.00 50 1009.2
20260509001500 65 169 1.0 2.0 0.00 0.00 0.00 50 1009.3
20260509001400 65 209 0.0 2.0 0.00 0.00 0.00 49 1009.2
20260509001202 66 163 0.0 2.0 0.00 0.00 0.00 50 1009.3
20260509001100 66 163 0.0 3.0 0.00 0.00 0.00 50 1009.3
20260509000901 66 163 0.0 4.0 0.00 0.00 0.00 50 1009.3
20260509000801 66 202 1.0 4.0 0.00 0.00 0.00 50 1009.3
20260509000703 66 213 0.0 4.0 0.00 0.00 0.00 49 1009.3
20260509000602 66 205 0.0 4.0 0.00 0.00 0.00 50 1009.3
20260509000501 66 202 0.0 4.0 0.00 0.00 0.00 49 1009.3
20260509000402 66 202 0.0 4.0 0.00 0.00 0.00 49 1009.4
20260509000303 66 136 0.0 4.0 0.00 0.00 0.00 50 1009.4
20260509000159 66 207 2.0 4.0 0.00 0.00 0.00 49 1009.4
20260509000100 66 171 1.0 4.0 0.00 0.00 0.00 49 1009.3
20260509000004 66 166 0.0 1.0 0.00 0.00 0.00 49 1009.3
20260508235900 66 167 0.0 1.0 0.00 0.00 0.00 49 1009.4
20260508235800 66 203 0.0 1.0 0.00 0.00 0.00 50 1009.4
20260508235701 66 213 0.0 1.0 0.00 0.00 0.00 49 1009.4
20260508235601 66 254 0.0 1.0 0.00 0.00 0.00 50 1009.3
20260508235500 66 254 0.0 3.0 0.00 0.00 0.00 50 1009.3
20260508235401 66 262 0.0 3.0 0.00 0.00 0.00 50 1009.3
20260508235301 66 262 0.0 3.0 0.00 0.00 0.00 49 1009.3
20260508235200 66 262 0.0 4.0 0.00 0.00 0.00 49 1009.2
20260508234803 66 195 0.0 4.0 0.00 0.00 0.00 48 1009.3
20260508234500 66 42 1.0 4.0 0.00 0.00 0.00 48 1009.3
20260508234401 66 195 1.0 4.0 0.00 0.00 0.00 49 1009.3
20260508234301 66 208 2.0 3.0 0.00 0.00 0.00 48 1009.3
20260508234200 66 178 0.0 3.0 0.00 0.00 0.00 48 1009.2
20260508234100 66 159 2.0 3.0 0.00 0.00 0.00 48 1009.3
20260508234000 66 213 2.0 3.0 0.00 0.00 0.00 48 1009.2
20260508233901 66 216 0.0 3.0 0.00 0.00 0.00 48 1009.2
20260508233800 66 216 0.0 3.0 0.00 0.00 0.00 47 1009.2
20260508233700 66 225 1.0 3.0 0.00 0.00 0.00 47 1009.2
20260508233602 66 208 1.0 2.0 0.00 0.00 0.00 47 1009.3
20260508233401 66 212 0.0 3.0 0.00 0.00 0.00 48 1009.2
20260508233300 66 197 0.0 5.0 0.00 0.00 0.00 48 1009.2
20260508233201 66 257 0.0 5.0 0.00 0.00 0.00 49 1009.2
20260508233100 66 256 0.0 5.0 0.00 0.00 0.00 48 1009.2
20260508233000 66 256 0.0 5.0 0.00 0.00 0.00 48 1009.2
20260508232902 66 273 0.0 5.0 0.00 0.00 0.00 48 1009.2
20260508232800 66 189 0.0 5.0 0.00 0.00 0.00 47 1009.2
20260508232701 66 186 0.0 5.0 0.00 0.00 0.00 47 1009.3
20260508232502 67 293 3.0 6.0 0.00 0.00 0.00 47 1009.4
20260508232400 67 228 1.0 6.0 0.00 0.00 0.00 48 1009.3
20260508232301 67 211 0.0 6.0 0.00 0.00 0.00 48 1009.3
20260508232200 67 211 0.0 6.0 0.00 0.00 0.00 47 1009.3
20260508232100 67 273 2.0 6.0 0.00 0.00 0.00 47 1009.4
20260508232002 67 304 0.0 6.0 0.00 0.00 0.00 46 1009.4
20260508231901 67 270 2.0 6.0 0.00 0.00 0.00 47 1009.4
20260508231804 67 168 6.0 6.0 0.00 0.00 0.00 47 1009.3
20260508231700 67 207 0.0 5.0 0.00 0.00 0.00 47 1009.4
20260508231600 67 211 1.0 5.0 0.00 0.00 0.00 46 1009.4
20260508231502 67 188 1.0 5.0 0.00 0.00 0.00 47 1009.3
20260508231401 67 183 1.0 5.0 0.00 0.00 0.00 46 1009.3
20260508231301 67 15 2.0 5.0 0.00 0.00 0.00 47 1009.4
20260508231200 67 204 1.0 4.0 0.00 0.00 0.00 46 1009.4
20260508231102 67 217 2.0 4.0 0.00 0.00 0.00 46 1009.3
20260508231000 67 198 2.0 4.0 0.00 0.00 0.00 46 1009.3
20260508230901 67 180 1.0 4.0 0.00 0.00 0.00 46 1009.3
20260508230801 67 199 3.0 4.0 0.00 0.00 0.00 47 1009.3
20260508230701 67 265 0.0 4.0 0.00 0.00 0.00 46 1009.2
20260508230601 67 25 3.0 4.0 0.00 0.00 0.00 47 1009.2
20260508230500 67 202 2.0 4.0 0.00 0.00 0.00 46 1009.2
20260508230402 67 261 1.0 4.0 0.00 0.00 0.00 47 1009.2
20260508230300 67 215 1.0 4.0 0.00 0.00 0.00 46 1009.2
20260508230201 67 196 1.0 3.0 0.00 0.00 0.00 46 1009.2
20260508230000 67 205 0.0 3.0 0.00 0.00 0.00 46 1009.3
20260508225901 67 210 0.0 3.0 0.00 0.00 0.00 46 1009.2
20260508225800 67 243 0.0 3.0 0.00 0.00 0.00 46 1009.2
20260508225700 67 225 0.0 3.0 0.00 0.00 0.00 46 1009.2
20260508225401 67 171 0.0 4.0 0.00 0.00 0.00 46 1009.2
20260508225301 67 189 0.0 4.0 0.00 0.00 0.00 46 1009.2
20260508225102 67 208 0.0 5.0 0.00 0.00 0.00 45 1009.1
20260508225003 67 186 0.0 5.0 0.00 0.00 0.00 45 1009.1
20260508224901 67 140 2.0 5.0 0.00 0.00 0.00 45 1009.0
20260508224759 67 117 1.0 5.0 0.00 0.00 0.00 46 1009.1
20260508224700 67 213 1.0 5.0 0.00 0.00 0.00 45 1009.1
20260508224601 67 198 0.0 5.0 0.00 0.00 0.00 45 1009.1
20260508224500 67 132 1.0 5.0 0.00 0.00 0.00 45 1009.1
20260508224400 67 234 3.0 5.0 0.00 0.00 0.00 46 1009.1
20260508224301 67 188 0.0 5.0 0.00 0.00 0.00 45 1009.1
20260508224200 67 282 2.0 5.0 0.00 0.00 0.00 45 1009.1
20260508224100 67 227 2.0 5.0 0.00 0.00 0.00 45 1009.1
20260508224001 67 155 1.0 5.0 0.00 0.00 0.00 46 1009.1
20260508223902 67 140 0.0 5.0 0.00 0.00 0.00 45 1009.1
20260508223800 67 181 4.0 5.0 0.00 0.00 0.00 45 1009.1
20260508223700 68 219 4.0 5.0 0.00 0.00 0.00 46 1009.1
20260508223602 68 223 0.0 6.0 0.00 0.00 0.00 46 1009.1
20260508223500 68 304 0.0 6.0 0.00 0.00 0.00 46 1009.1
20260508223400 68 190 0.0 7.0 0.00 0.00 0.00 46 1009.1
20260508223102 68 219 0.0 7.0 0.00 0.00 0.00 45 1009.1
20260508223002 68 217 0.0 7.0 0.00 0.00 0.00 44 1009.0
20260508222800 68 229 2.0 7.0 0.00 0.00 0.00 45 1009.0
20260508222600 68 227 3.0 7.0 0.00 0.00 0.00 45 1009.0
20260508222306 68 156 1.0 5.0 0.00 0.00 0.00 45 1009.1
20260508222201 68 173 1.0 6.0 0.00 0.00 0.00 45 1009.1
20260508222100 68 264 3.0 6.0 0.00 0.00 0.00 45 1009.1
20260508222001 68 160 2.0 7.0 0.00 0.00 0.00 45 1009.1
20260508221801 68 208 2.0 7.0 0.00 0.00 0.00 44 1009.1
20260508221700 68 194 1.0 7.0 0.00 0.00 0.00 44 1009.1
20260508221500 68 129 3.0 7.0 0.00 0.00 0.00 43 1009.1
20260508221302 68 164 5.0 7.0 0.00 0.00 0.00 44 1009.1
20260508221201 68 188 2.0 7.0 0.00 0.00 0.00 44 1009.0
20260508221100 68 205 7.0 7.0 0.00 0.00 0.00 43 1009.0
20260508221001 68 188 2.0 7.0 0.00 0.00 0.00 43 1009.0
20260508220900 68 130 4.0 8.0 0.00 0.00 0.00 44 1009.0
20260508220801 68 188 2.0 8.0 0.00 0.00 0.00 44 1009.0
20260508220700 68 222 5.0 8.0 0.00 0.00 0.00 44 1009.0
20260508220503 68 9 2.0 8.0 0.00 0.00 0.00 45 1009.0
20260508220400 68 153 1.0 8.0 0.00 0.00 0.00 45 1009.0
20260508220301 68 201 2.0 8.0 0.00 0.00 0.00 44 1009.0
20260508220100 68 155 1.0 10.0 0.00 0.00 0.00 44 1008.9
20260508220003 68 195 1.0 8.0 0.00 0.00 0.00 44 1008.9
20260508215900 68 211 4.0 7.0 0.00 0.00 0.00 44 1008.9
20260508215802 68 198 0.0 8.0 0.00 0.00 0.00 43 1008.9
20260508215701 68 168 5.0 8.0 0.00 0.00 0.00 44 1008.9
20260508215500 68 248 1.0 9.0 0.00 0.00 0.00 44 1009.0
20260508215402 68 214 0.0 9.0 0.00 0.00 0.00 44 1008.9
20260508215301 69 152 1.0 9.0 0.00 0.00 0.00 44 1009.0
20260508215200 68 113 2.0 9.0 0.00 0.00 0.00 45 1009.0
20260508215101 69 141 0.0 9.0 0.00 0.00 0.00 44 1009.0
20260508215000 69 141 1.0 9.0 0.00 0.00 0.00 44 1008.9
20260508214802 69 142 3.0 9.0 0.00 0.00 0.00 43 1008.9
20260508214700 69 213 1.0 5.0 0.00 0.00 0.00 43 1008.9
20260508214601 69 209 2.0 5.0 0.00 0.00 0.00 43 1009.0
20260508214500 69 200 0.0 5.0 0.00 0.00 0.00 45 1009.1
20260508214401 69 234 2.0 5.0 0.00 0.00 0.00 43 1009.1
20260508214303 69 288 2.0 8.0 0.00 0.00 0.00 44 1009.0
20260508214203 69 163 2.0 8.0 0.00 0.00 0.00 44 1009.1
20260508214101 69 295 1.0 8.0 0.00 0.00 0.00 43 1008.9
20260508214004 69 150 3.0 8.0 0.00 0.00 0.00 45 1008.9
20260508213901 69 160 1.0 8.0 0.00 0.00 0.00 45 1009.0
20260508213801 69 162 1.0 8.0 0.00 0.00 0.00 44 1009.1
20260508213701 69 165 5.0 8.0 0.00 0.00 0.00 43 1009.1
20260508213600 69 360 1.0 8.0 0.00 0.00 0.00 42 1009.1
20260508213501 69 206 1.0 8.0 0.00 0.00 0.00 44 1009.1
20260508213400 69 213 1.0 8.0 0.00 0.00 0.00 43 1009.1
20260508213301 69 209 3.0 9.0 0.00 0.00 0.00 43 1009.1
20260508213000 69 198 0.0 9.0 0.00 0.00 0.00 43 1009.1
20260508212901 69 261 2.0 9.0 0.00 0.00 0.00 42 1009.1
20260508212702 69 182 2.0 9.0 0.00 0.00 0.00 42 1009.2
20260508212600 70 252 2.0 9.0 0.00 0.00 0.00 41 1009.2
20260508212502 70 171 5.0 9.0 0.00 0.00 0.00 40 1009.2
20260508212400 70 187 5.0 9.0 0.00 0.00 0.00 41 1009.2
20260508212300 70 182 4.0 9.0 0.00 0.00 0.00 42 1009.2
20260508212200 70 160 5.0 9.0 0.00 0.00 0.00 41 1009.2
20260508212101 70 200 1.0 9.0 0.00 0.00 0.00 41 1009.2
20260508211900 71 173 2.0 9.0 0.00 0.00 0.00 41 1009.1
20260508211800 71 220 6.0 6.0 0.00 0.00 0.00 43 1009.1
20260508211702 71 225 1.0 5.0 0.00 0.00 0.00 43 1009.1
20260508211601 71 265 1.0 5.0 0.00 0.00 0.00 43 1009.1
20260508211501 71 267 3.0 7.0 0.00 0.00 0.00 42 1009.1
20260508211401 71 290 0.0 7.0 0.00 0.00 0.00 40 1009.1
20260508211303 71 244 4.0 7.0 0.00 0.00 0.00 41 1009.2
20260508211200 71 186 2.0 7.0 0.00 0.00 0.00 40 1009.3
20260508211000 70 160 0.0 7.0 0.00 0.00 0.00 43 1009.3
20260508210903 70 291 4.0 7.0 0.00 0.00 0.00 43 1009.3
20260508210801 70 131 1.0 7.0 0.00 0.00 0.00 43 1009.3
20260508210700 70 206 1.0 7.0 0.00 0.00 0.00 42 1009.2
20260508210603 70 103 4.0 7.0 0.00 0.00 0.00 44 1009.2
20260508210402 70 194 2.0 7.0 0.00 0.00 0.00 43 1009.3
20260508210301 70 184 2.0 7.0 0.00 0.00 0.00 42 1009.3
20260508210201 70 193 5.0 7.0 0.00 0.00 0.00 41 1009.4
20260508210005 69 191 5.0 7.0 0.00 0.00 0.00 41 1009.5
20260508205900 69 293 4.0 7.0 0.00 0.00 0.00 44 1009.6
20260508205800 69 251 1.0 7.0 0.00 0.00 0.00 43 1009.6
20260508205702 69 252 3.0 7.0 0.00 0.00 0.00 43 1009.6
20260508205500 69 210 5.0 7.0 0.00 0.00 0.00 43 1009.7
20260508205400 68 178 3.0 7.0 0.00 0.00 0.00 42 1009.7
20260508205301 68 207 5.0 7.0 0.00 0.00 0.00 43 1009.6
20260508205202 68 197 5.0 7.0 0.00 0.00 0.00 43 1009.7
20260508205100 68 239 1.0 7.0 0.00 0.00 0.00 43 1009.7
20260508205001 68 193 1.0 12.0 0.00 0.00 0.00 43 1009.7
20260508204900 68 191 3.0 12.0 0.00 0.00 0.00 43 1009.7
20260508204701 68 184 1.0 12.0 0.00 0.00 0.00 44 1009.7
20260508204601 68 186 1.0 12.0 0.00 0.00 0.00 42 1009.7
20260508204500 69 212 1.0 12.0 0.00 0.00 0.00 42 1009.8
20260508204400 68 150 2.0 12.0 0.00 0.00 0.00 43 1009.9
20260508204100 68 190 1.0 12.0 0.00 0.00 0.00 43 1009.9
20260508204002 68 202 3.0 7.0 0.00 0.00 0.00 43 1009.9
20260508203800 68 163 1.0 9.0 0.00 0.00 0.00 44 1009.9
20260508203700 68 192 2.0 9.0 0.00 0.00 0.00 44 1009.9
20260508203602 68 152 0.0 9.0 0.00 0.00 0.00 43 1009.8
20260508203503 68 214 1.0 9.0 0.00 0.00 0.00 43 1009.9
20260508203400 68 267 0.0 9.0 0.00 0.00 0.00 42 1010.0
20260508203302 68 226 4.0 9.0 0.00 0.00 0.00 41 1010.0
20260508203200 68 190 4.0 9.0 0.00 0.00 0.00 42 1010.0
20260508203100 68 164 4.0 9.0 0.00 0.00 0.00 44 1010.1
20260508203001 68 212 1.0 9.0 0.00 0.00 0.00 42 1010.0
20260508202900 68 130 1.0 9.0 0.00 0.00 0.00 42 1010.2
20260508202801 68 204 2.0 9.0 0.00 0.00 0.00 42 1010.0
20260508202703 68 208 2.0 9.0 0.00 0.00 0.00 44 1010.0
20260508202602 68 257 0.0 9.0 0.00 0.00 0.00 43 1010.1
20260508202501 69 184 3.0 9.0 0.00 0.00 0.00 41 1010.1
20260508202306 69 166 4.0 9.0 0.00 0.00 0.00 42 1010.2
20260508202200 69 201 9.0 9.0 0.00 0.00 0.00 41 1010.2
20260508202101 69 183 3.0 9.0 0.00 0.00 0.00 43 1010.1
20260508202000 69 302 4.0 9.0 0.00 0.00 0.00 43 1010.1
20260508201800 69 168 5.0 9.0 0.00 0.00 0.00 43 1010.1
20260508201600 69 242 9.0 9.0 0.00 0.00 0.00 42 1010.2
20260508201500 69 287 5.0 6.0 0.00 0.00 0.00 42 1010.1
20260508201159 69 315 3.0 6.0 0.00 0.00 0.00 44 1010.2
20260508201001 68 188 2.0 6.0 0.00 0.00 0.00 42 1010.3
20260508200900 68 216 2.0 6.0 0.00 0.00 0.00 44 1010.3
20260508200800 68 205 1.0 6.0 0.00 0.00 0.00 42 1010.2
20260508200701 68 191 2.0 7.0 0.00 0.00 0.00 43 1010.2
20260508200502 68 273 0.0 8.0 0.00 0.00 0.00 43 1010.3
20260508200400 68 195 1.0 8.0 0.00 0.00 0.00 44 1010.4
20260508200302 68 184 2.0 8.0 0.00 0.00 0.00 43 1010.3
20260508200200 68 71 1.0 8.0 0.00 0.00 0.00 43 1010.3
20260508200103 68 190 3.0 8.0 0.00 0.00 0.00 45 1010.3
20260508200000 68 254 0.0 8.0 0.00 0.00 0.00 43 1010.4
20260508195859 68 202 1.0 8.0 0.00 0.00 0.00 43 1010.4
20260508195700 68 112 3.0 8.0 0.00 0.00 0.00 43 1010.5
20260508195559 68 204 2.0 6.0 0.00 0.00 0.00 43 1010.5
20260508195259 68 203 3.0 6.0 0.00 0.00 0.00 43 1010.5
20260508195159 68 214 0.0 6.0 0.00 0.00 0.00 44 1010.5
20260508195059 68 193 1.0 6.0 0.00 0.00 0.00 42 1010.5
20260508194859 68 186 4.0 7.0 0.00 0.00 0.00 41 1010.5
20260508194800 68 153 3.0 9.0 0.00 0.00 0.00 42 1010.5
20260508194700 68 196 2.0 9.0 0.00 0.00 0.00 42 1010.4
20260508194559 68 149 2.0 9.0 0.00 0.00 0.00 41 1010.4
20260508194500 68 194 2.0 9.0 0.00 0.00 0.00 42 1010.5
20260508194300 68 186 1.0 9.0 0.00 0.00 0.00 41 1010.5
20260508194159 69 167 4.0 9.0 0.00 0.00 0.00 41 1010.5
20260508194059 69 212 2.0 9.0 0.00 0.00 0.00 42 1010.5
20260508193901 69 192 4.0 9.0 0.00 0.00 0.00 41 1010.5
20260508193759 69 205 4.0 7.0 0.00 0.00 0.00 41 1010.6
20260508193500 69 207 2.0 7.0 0.00 0.00 0.00 41 1010.5
20260508193402 69 202 2.0 7.0 0.00 0.00 0.00 41 1010.6
20260508193259 69 296 1.0 6.0 0.00 0.00 0.00 41 1010.5
20260508193201 69 220 3.0 6.0 0.00 0.00 0.00 40 1010.5
20260508193101 69 199 4.0 6.0 0.00 0.00 0.00 40 1010.6
20260508193001 70 49 1.0 7.0 0.00 0.00 0.00 40 1010.6
20260508192900 70 169 5.0 7.0 0.00 0.00 0.00 41 1010.6
20260508192800 70 116 1.0 7.0 0.00 0.00 0.00 40 1010.6
20260508192700 70 220 2.0 7.0 0.00 0.00 0.00 41 1010.7
20260508192600 70 203 1.0 5.0 0.00 0.00 0.00 41 1010.6
20260508192500 70 196 3.0 5.0 0.00 0.00 0.00 42 1010.6
20260508192300 70 286 0.0 6.0 0.00 0.00 0.00 41 1010.6
20260508192001 69 97 2.0 8.0 0.00 0.00 0.00 41 1010.7
20260508191900 69 222 3.0 8.0 0.00 0.00 0.00 40 1010.6
20260508191800 69 170 1.0 8.0 0.00 0.00 0.00 42 1010.7
20260508191701 69 133 1.0 8.0 0.00 0.00 0.00 40 1010.7
20260508191600 69 215 5.0 11.0 0.00 0.00 0.00 42 1010.8
20260508191500 69 145 3.0 11.0 0.00 0.00 0.00 41 1010.8
20260508191404 69 194 6.0 11.0 0.00 0.00 0.00 41 1010.8
20260508191201 69 176 0.0 11.0 0.00 0.00 0.00 43 1010.9
20260508191100 69 170 4.0 11.0 0.00 0.00 0.00 41 1010.9
20260508191000 69 200 1.0 11.0 0.00 0.00 0.00 40 1010.9
20260508190802 69 314 1.0 11.0 0.00 0.00 0.00 40 1010.9
20260508190700 70 219 2.0 10.0 0.00 0.00 0.00 39 1010.9
20260508190600 70 328 1.0 10.0 0.00 0.00 0.00 38 1011.0
20260508190500 70 211 2.0 10.0 0.00 0.00 0.00 39 1011.0
20260508190300 70 177 3.0 9.0 0.00 0.00 0.00 40 1010.9
20260508190203 70 214 2.0 8.0 0.00 0.00 0.00 40 1011.0
20260508185859 70 214 0.0 8.0 0.00 0.00 0.00 40 1011.1
20260508185659 70 202 3.0 8.0 0.00 0.00 0.00 40 1011.0
20260508185559 70 177 4.0 8.0 0.00 0.00 0.00 42 1011.0
20260508185501 70 209 3.0 8.0 0.00 0.00 0.00 42 1011.1
20260508185359 70 306 2.0 8.0 0.00 0.00 0.00 41 1011.1
20260508185259 70 169 2.0 9.0 0.00 0.00 0.00 39 1011.0
20260508185159 70 217 4.0 13.0 0.00 0.00 0.00 40 1011.1
20260508185059 70 207 6.0 13.0 0.00 0.00 0.00 42 1011.1
20260508185000 70 167 4.0 13.0 0.00 0.00 0.00 43 1011.1
20260508184900 70 321 2.0 13.0 0.00 0.00 0.00 42 1011.0
20260508184800 70 140 0.0 13.0 0.00 0.00 0.00 41 1011.1
20260508184659 70 203 3.0 13.0 0.00 0.00 0.00 40 1011.1
20260508184459 70 146 4.0 13.0 0.00 0.00 0.00 39 1011.1
20260508184400 70 174 2.0 13.0 0.00 0.00 0.00 39 1011.0
20260508184259 70 136 5.0 13.0 0.00 0.00 0.00 38 1011.1
20260508184100 70 225 3.0 10.0 0.00 0.00 0.00 39 1011.2
20260508184001 70 185 8.0 9.0 0.00 0.00 0.00 41 1011.2
20260508183859 70 18 2.0 9.0 0.00 0.00 0.00 39 1011.2
20260508183800 70 125 2.0 10.0 0.00 0.00 0.00 39 1011.2
20260508183700 70 152 3.0 10.0 0.00 0.00 0.00 41 1011.2
20260508183459 70 180 4.0 9.0 0.00 0.00 0.00 42 1011.3
20260508183358 70 160 5.0 9.0 0.00 0.00 0.00 42 1011.3
20260508183300 70 217 2.0 11.0 0.00 0.00 0.00 40 1011.3
20260508183201 70 215 5.0 11.0 0.00 0.00 0.00 41 1011.4
20260508183059 70 223 2.0 11.0 0.00 0.00 0.00 42 1011.4
20260508182959 69 159 1.0 11.0 0.00 0.00 0.00 40 1011.4
20260508182859 69 177 4.0 11.0 0.00 0.00 0.00 38 1011.5
20260508182801 69 196 3.0 11.0 0.00 0.00 0.00 40 1011.5
20260508182701 69 40 2.0 11.0 0.00 0.00 0.00 41 1011.6
20260508182559 69 296 1.0 11.0 0.00 0.00 0.00 40 1011.6
20260508182500 69 183 8.0 11.0 0.00 0.00 0.00 40 1011.6
20260508182358 69 215 7.0 9.0 0.00 0.00 0.00 41 1011.6
20260508182200 69 42 2.0 10.0 0.00 0.00 0.00 38 1011.7
20260508182100 70 267 4.0 10.0 0.00 0.00 0.00 38 1011.7
20260508181959 70 182 2.0 10.0 0.00 0.00 0.00 38 1011.8
20260508181859 70 124 1.0 10.0 0.00 0.00 0.00 39 1011.7
20260508181759 70 223 2.0 11.0 0.00 0.00 0.00 40 1011.8
20260508181701 70 242 1.0 11.0 0.00 0.00 0.00 39 1011.8
20260508181459 70 294 5.0 11.0 0.00 0.00 0.00 40 1011.8
20260508181400 70 344 9.0 11.0 0.00 0.00 0.00 40 1011.7
20260508181259 70 216 3.0 11.0 0.00 0.00 0.00 40 1011.8
20260508181200 70 209 3.0 11.0 0.00 0.00 0.00 43 1011.8
20260508181059 69 311 2.0 11.0 0.00 0.00 0.00 39 1011.8
20260508181001 69 128 3.0 12.0 0.00 0.00 0.00 40 1011.9
20260508180904 69 182 4.0 8.0 0.00 0.00 0.00 41 1011.8
20260508180804 69 156 6.0 9.0 0.00 0.00 0.00 42 1011.8
20260508180700 69 207 4.0 9.0 0.00 0.00 0.00 41 1011.8
20260508180558 69 234 1.0 9.0 0.00 0.00 0.00 44 1011.8
20260508180500 69 5 0.0 9.0 0.00 0.00 0.00 41 1011.9
20260508180400 69 329 3.0 9.0 0.00 0.00 0.00 40 1011.9
20260508180300 69 244 0.0 9.0 0.00 0.00 0.00 40 1011.9
20260508180200 69 172 3.0 11.0 0.00 0.00 0.00 39 1012.0
20260508180059 69 228 1.0 11.0 0.00 0.00 0.00 40 1012.0
20260508175859 69 196 2.0 11.0 0.00 0.00 0.00 38 1012.1
20260508175800 69 236 5.0 11.0 0.00 0.00 0.00 38 1012.0
20260508175659 70 278 2.0 11.0 0.00 0.00 0.00 37 1012.1
20260508175459 70 327 1.0 11.0 0.00 0.00 0.00 39 1012.1
20260508175400 70 217 2.0 11.0 0.00 0.00 0.00 37 1012.0
20260508175259 71 222 5.0 11.0 0.00 0.00 0.00 38 1012.0
20260508175200 71 195 8.0 11.0 0.00 0.00 0.00 38 1012.0
20260508175100 71 171 6.0 10.0 0.00 0.00 0.00 38 1011.9
20260508174959 71 109 7.0 7.0 0.00 0.00 0.00 39 1012.0
20260508174901 71 201 2.0 7.0 0.00 0.00 0.00 40 1012.0
20260508174801 71 256 4.0 7.0 0.00 0.00 0.00 43 1012.0
20260508174700 71 225 3.0 7.0 0.00 0.00 0.00 43 1012.0
20260508174600 71 350 1.0 7.0 0.00 0.00 0.00 43 1011.9
20260508174459 71 302 1.0 7.0 0.00 0.00 0.00 42 1012.0
20260508174400 71 250 4.0 7.0 0.00 0.00 0.00 42 1012.0
20260508174302 71 182 1.0 7.0 0.00 0.00 0.00 44 1012.2
20260508174200 71 211 1.0 7.0 0.00 0.00 0.00 41 1012.1
20260508174100 71 194 3.0 7.0 0.00 0.00 0.00 44 1012.2
20260508174002 70 172 3.0 7.0 0.00 0.00 0.00 44 1012.1
20260508173859 70 169 4.0 6.0 0.00 0.00 0.00 46 1012.1
20260508173801 70 138 3.0 6.0 0.00 0.00 0.00 47 1012.2
20260508173659 70 175 1.0 6.0 0.00 0.00 0.00 43 1012.2
20260508173602 70 205 3.0 6.0 0.00 0.00 0.00 42 1012.2
20260508173401 70 188 2.0 8.0 0.00 0.00 0.00 44 1012.2
20260508173259 70 188 2.0 8.0 0.00 0.00 0.00 42 1012.3